Time,TemperatureF,DewpointF,PressureIn,WindDirection,WindDirectionDegrees,WindSpeedMPH,WindSpeedGustMPH,Humidity,HourlyPrecipIn,Conditions,Clouds,dailyrainin,SoftwareType,DateUTC
2013-05-12 00:01:00,56.2,52.0,29.86,SSE,163,0.5,2.0,86,0.00,,,0.00,WUHU216HW,2013-05-12 04:01:00,
2013-05-12 00:03:00,56.0,51.9,29.86,South,180,0.0,2.0,86,0.00,,,0.00,WUHU216HW,2013-05-12 04:03:00,
2013-05-12 00:06:00,55.8,51.7,29.86,SSE,158,0.0,1.6,86,0.00,,,0.00,WUHU216HW,2013-05-12 04:06:00,
2013-05-12 00:07:00,55.8,51.7,29.86,South,180,0.0,1.1,86,0.00,,,0.00,WUHU216HW,2013-05-12 04:07:00,
2013-05-12 00:08:00,55.6,51.5,29.86,SW,225,0.2,0.9,86,0.00,,,0.00,WUHU216HW,2013-05-12 04:08:00,
2013-05-12 00:11:00,55.4,51.3,29.86,SW,225,0.7,1.3,86,0.00,,,0.00,WUHU216HW,2013-05-12 04:11:00,
2013-05-12 00:12:00,55.4,51.6,29.86,North,0,1.1,1.3,87,0.00,,,0.00,WUHU216HW,2013-05-12 04:12:00,
2013-05-12 00:13:00,55.4,51.6,29.86,North,0,1.3,1.3,87,0.00,,,0.00,WUHU216HW,2013-05-12 04:13:00,
2013-05-12 00:16:00,55.3,51.4,29.86,NE,35,0.7,1.3,87,0.00,,,0.00,WUHU216HW,2013-05-12 04:16:00,
2013-05-12 00:18:00,55.3,51.4,29.86,West,270,0.7,1.3,87,0.00,,,0.00,WUHU216HW,2013-05-12 04:18:00,
2013-05-12 00:21:00,55.3,51.8,29.87,NNW,337,1.2,1.6,88,0.00,,,0.00,WUHU216HW,2013-05-12 04:21:00,
2013-05-12 00:23:00,55.3,51.8,29.87,NW,315,1.1,1.6,88,0.00,,,0.00,WUHU216HW,2013-05-12 04:23:00,
2013-05-12 00:24:00,55.3,51.8,29.87,NNE,23,4.0,4.0,88,0.00,,,0.00,WUHU216HW,2013-05-12 04:24:00,
2013-05-12 00:26:00,55.3,51.8,29.87,North,5,2.6,4.7,88,0.00,,,0.00,WUHU216HW,2013-05-12 04:26:00,
2013-05-12 00:29:00,55.8,52.3,29.87,North,0,1.8,4.7,88,0.00,,,0.00,WUHU216HW,2013-05-12 04:29:00,
2013-05-12 00:30:00,55.8,52.3,29.87,NNW,337,1.3,4.7,88,0.00,,,0.00,WUHU216HW,2013-05-12 04:30:00,
2013-05-12 00:31:00,55.8,52.3,29.87,NNE,24,1.1,4.7,88,0.00,,,0.00,WUHU216HW,2013-05-12 04:31:00,
2013-05-12 00:35:00,56.0,52.1,29.87,North,0,1.3,4.0,87,0.00,,,0.00,WUHU216HW,2013-05-12 04:35:00,
2013-05-12 00:36:00,56.0,51.9,29.87,NNE,19,0.8,4.0,86,0.00,,,0.00,WUHU216HW,2013-05-12 04:36:00,
2013-05-12 00:37:00,56.0,51.9,29.87,NNW,338,1.1,2.5,86,0.00,,,0.00,WUHU216HW,2013-05-12 04:37:00,
2013-05-12 00:38:00,56.0,51.9,29.87,North,353,0.6,2.5,86,0.00,,,0.00,WUHU216HW,2013-05-12 04:38:00,
2013-05-12 00:40:00,56.0,51.9,29.87,NNW,338,1.1,2.5,86,0.00,,,0.00,WUHU216HW,2013-05-12 04:40:00,
2013-05-12 00:42:00,55.8,51.7,29.87,NNW,345,0.6,2.5,86,0.00,,,0.00,WUHU216HW,2013-05-12 04:42:00,
2013-05-12 00:43:00,55.8,51.7,29.87,North,358,0.8,2.5,86,0.00,,,0.00,WUHU216HW,2013-05-12 04:43:00,
2013-05-12 00:46:00,55.8,51.7,29.87,WNW,289,0.6,1.6,86,0.00,,,0.00,WUHU216HW,2013-05-12 04:46:00,
2013-05-12 00:47:00,55.6,51.5,29.87,West,276,0.6,1.6,86,0.00,,,0.00,WUHU216HW,2013-05-12 04:47:00,
2013-05-12 00:48:00,55.6,51.5,29.87,West,270,0.4,1.6,86,0.00,,,0.00,WUHU216HW,2013-05-12 04:48:00,
2013-05-12 00:50:00,55.4,51.3,29.87,West,270,0.3,1.6,86,0.00,,,0.00,WUHU216HW,2013-05-12 04:50:00,
2013-05-12 00:51:00,55.3,51.1,29.87,West,270,0.0,1.6,86,0.00,,,0.00,WUHU216HW,2013-05-12 04:51:00,
2013-05-12 00:52:00,55.3,51.1,29.87,West,270,0.0,1.6,86,0.00,,,0.00,WUHU216HW,2013-05-12 04:52:00,
2013-05-12 00:53:00,55.1,51.0,29.87,NW,315,0.0,1.6,86,0.00,,,0.00,WUHU216HW,2013-05-12 04:53:00,
2013-05-12 00:55:00,54.9,50.8,29.87,WNW,296,0.9,1.6,86,0.00,,,0.00,WUHU216HW,2013-05-12 04:55:00,
2013-05-12 00:57:00,54.7,50.6,29.87,North,350,0.9,1.1,86,0.00,,,0.00,WUHU216HW,2013-05-12 04:57:00,
2013-05-12 00:59:00,54.7,50.6,29.87,North,0,0.4,1.1,86,0.00,,,0.00,WUHU216HW,2013-05-12 04:59:00,
2013-05-12 01:00:00,54.5,50.4,29.87,NNW,338,0.0,1.1,86,0.00,,,0.00,WUHU216HW,2013-05-12 05:00:00,
2013-05-12 01:02:00,54.5,50.8,29.87,WNW,286,0.7,1.3,87,0.00,,,0.00,WUHU216HW,2013-05-12 05:02:00,
2013-05-12 01:03:00,54.4,50.6,29.87,NNW,338,1.6,1.6,87,0.00,,,0.00,WUHU216HW,2013-05-12 05:03:00,
2013-05-12 01:05:00,54.4,50.6,29.87,WNW,293,1.1,1.6,87,0.00,,,0.00,WUHU216HW,2013-05-12 05:05:00,
2013-05-12 01:06:00,54.4,50.6,29.87,NW,312,0.7,1.6,87,0.00,,,0.00,WUHU216HW,2013-05-12 05:06:00,
2013-05-12 01:08:00,54.4,50.6,29.87,WNW,293,0.4,1.6,87,0.00,,,0.00,WUHU216HW,2013-05-12 05:08:00,
2013-05-12 01:12:00,54.0,50.2,29.87,WNW,293,0.0,1.6,87,0.00,,,0.00,WUHU216HW,2013-05-12 05:12:00,
2013-05-12 01:13:00,54.0,50.2,29.87,WNW,293,0.0,1.6,87,0.00,,,0.00,WUHU216HW,2013-05-12 05:13:00,
2013-05-12 01:16:00,53.8,50.3,29.87,NNE,23,0.3,0.4,88,0.00,,,0.00,WUHU216HW,2013-05-12 05:16:00,
2013-05-12 01:17:00,53.8,50.3,29.87,NNE,23,0.2,0.4,88,0.00,,,0.00,WUHU216HW,2013-05-12 05:17:00,
2013-05-12 01:19:00,53.6,50.1,29.87,NNE,23,0.0,0.4,88,0.00,,,0.00,WUHU216HW,2013-05-12 05:19:00,
2013-05-12 01:21:00,53.6,50.1,29.87,NNE,23,0.0,0.4,88,0.00,,,0.00,WUHU216HW,2013-05-12 05:21:00,
2013-05-12 01:22:00,53.5,50.0,29.87,NNE,23,0.0,0.4,88,0.00,,,0.00,WUHU216HW,2013-05-12 05:22:00,
2013-05-12 01:23:00,53.5,50.0,29.87,NNE,23,0.0,0.4,88,0.00,,,0.00,WUHU216HW,2013-05-12 05:23:00,
2013-05-12 01:25:00,53.3,49.8,29.87,NNE,23,0.0,0.4,88,0.00,,,0.00,WUHU216HW,2013-05-12 05:25:00,
2013-05-12 01:27:00,53.3,49.8,29.87,NNE,23,0.0,0.0,88,0.00,,,0.00,WUHU216HW,2013-05-12 05:27:00,
2013-05-12 01:28:00,53.1,49.6,29.87,NNE,23,0.0,0.0,88,0.00,,,0.00,WUHU216HW,2013-05-12 05:28:00,
2013-05-12 01:30:00,53.1,49.6,29.87,NNE,23,0.0,0.0,88,0.00,,,0.00,WUHU216HW,2013-05-12 05:30:00,
2013-05-12 01:31:00,52.9,49.4,29.88,NNE,23,0.0,0.0,88,0.00,,,0.00,WUHU216HW,2013-05-12 05:31:00,
2013-05-12 01:33:00,52.9,49.4,29.87,NNE,23,0.0,0.0,88,0.00,,,0.00,WUHU216HW,2013-05-12 05:33:00,
2013-05-12 01:34:00,52.9,49.4,29.87,NNE,23,0.0,0.0,88,0.00,,,0.00,WUHU216HW,2013-05-12 05:34:00,
2013-05-12 01:36:00,52.7,49.2,29.87,NNE,23,0.0,0.0,88,0.00,,,0.00,WUHU216HW,2013-05-12 05:36:00,
2013-05-12 01:38:00,52.6,49.1,29.87,NNE,23,0.0,0.0,88,0.00,,,0.00,WUHU216HW,2013-05-12 05:38:00,
2013-05-12 01:39:00,52.6,49.1,29.87,NNE,23,0.0,0.0,88,0.00,,,0.00,WUHU216HW,2013-05-12 05:39:00,
2013-05-12 01:40:00,52.6,49.1,29.87,NNE,23,0.0,0.0,88,0.00,,,0.00,WUHU216HW,2013-05-12 05:40:00,
2013-05-12 01:41:00,52.6,49.4,29.87,NNE,23,0.0,0.0,89,0.00,,,0.00,WUHU216HW,2013-05-12 05:41:00,
2013-05-12 01:43:00,52.6,49.4,29.87,NNE,23,0.0,0.0,89,0.00,,,0.00,WUHU216HW,2013-05-12 05:43:00,
2013-05-12 01:44:00,52.6,49.4,29.87,NNE,23,0.0,0.0,89,0.00,,,0.00,WUHU216HW,2013-05-12 05:44:00,
2013-05-12 01:45:00,52.6,49.4,29.87,NNE,23,0.0,0.0,89,0.00,,,0.00,WUHU216HW,2013-05-12 05:45:00,
2013-05-12 01:46:00,52.6,49.4,29.87,NNE,23,0.0,0.0,89,0.00,,,0.00,WUHU216HW,2013-05-12 05:46:00,
2013-05-12 01:48:00,52.4,49.2,29.88,NNE,23,0.0,0.0,89,0.00,,,0.00,WUHU216HW,2013-05-12 05:48:00,
2013-05-12 01:49:00,52.4,49.2,29.88,NNE,23,0.0,0.0,89,0.00,,,0.00,WUHU216HW,2013-05-12 05:49:00,
2013-05-12 01:52:00,52.4,49.2,29.87,NNE,23,0.0,0.0,89,0.00,,,0.00,WUHU216HW,2013-05-12 05:52:00,
2013-05-12 01:53:00,52.4,49.2,29.87,NNE,23,0.0,0.0,89,0.00,,,0.00,WUHU216HW,2013-05-12 05:53:00,
2013-05-12 01:54:00,52.2,49.1,29.87,NNE,23,0.0,0.0,89,0.00,,,0.00,WUHU216HW,2013-05-12 05:54:00,
2013-05-12 01:55:00,52.2,49.1,29.87,NNE,23,0.0,0.0,89,0.00,,,0.00,WUHU216HW,2013-05-12 05:55:00,
2013-05-12 01:57:00,52.2,49.1,29.87,NNE,23,0.0,0.0,89,0.00,,,0.00,WUHU216HW,2013-05-12 05:57:00,
2013-05-12 01:58:00,52.2,49.1,29.87,NNE,23,0.0,0.0,89,0.00,,,0.00,WUHU216HW,2013-05-12 05:58:00,
2013-05-12 01:59:00,52.2,49.1,29.87,NNE,23,0.0,0.0,89,0.00,,,0.00,WUHU216HW,2013-05-12 05:59:00,
2013-05-12 02:00:00,52.2,49.1,29.87,NNE,23,0.0,0.0,89,0.00,,,0.00,WUHU216HW,2013-05-12 06:00:00,
2013-05-12 02:01:00,52.0,48.9,29.87,NNE,23,0.0,0.0,89,0.00,,,0.00,WUHU216HW,2013-05-12 06:01:00,
2013-05-12 02:03:00,52.0,48.9,29.87,NNE,23,0.0,0.0,89,0.00,,,0.00,WUHU216HW,2013-05-12 06:03:00,
2013-05-12 02:05:00,51.8,48.7,29.87,NNE,23,0.0,0.0,89,0.00,,,0.00,WUHU216HW,2013-05-12 06:05:00,
2013-05-12 02:06:00,51.8,48.7,29.87,NNE,23,0.0,0.0,89,0.00,,,0.00,WUHU216HW,2013-05-12 06:06:00,
2013-05-12 02:08:00,51.8,48.7,29.88,NNE,23,0.0,0.0,89,0.00,,,0.00,WUHU216HW,2013-05-12 06:08:00,
2013-05-12 02:09:00,51.8,48.7,29.88,NNE,23,0.0,0.0,89,0.00,,,0.00,WUHU216HW,2013-05-12 06:09:00,
2013-05-12 02:11:00,51.8,48.7,29.87,NNE,23,0.0,0.0,89,0.00,,,0.00,WUHU216HW,2013-05-12 06:11:00,
2013-05-12 02:12:00,51.7,48.5,29.88,NNE,23,0.0,0.0,89,0.00,,,0.00,WUHU216HW,2013-05-12 06:12:00,
2013-05-12 02:15:00,51.7,48.5,29.87,NNE,23,0.0,0.0,89,0.00,,,0.00,WUHU216HW,2013-05-12 06:15:00,
2013-05-12 02:16:00,51.7,48.5,29.87,NNE,23,0.0,0.0,89,0.00,,,0.00,WUHU216HW,2013-05-12 06:16:00,
2013-05-12 02:17:00,51.5,48.3,29.88,NNE,23,0.0,0.0,89,0.00,,,0.00,WUHU216HW,2013-05-12 06:17:00,
2013-05-12 02:19:00,51.5,48.3,29.87,NNE,23,0.0,0.0,89,0.00,,,0.00,WUHU216HW,2013-05-12 06:19:00,
2013-05-12 02:20:00,51.3,48.2,29.87,NNE,23,0.0,0.0,89,0.00,,,0.00,WUHU216HW,2013-05-12 06:20:00,
2013-05-12 02:21:00,51.3,48.2,29.87,NNE,23,0.0,0.0,89,0.00,,,0.00,WUHU216HW,2013-05-12 06:21:00,
2013-05-12 02:22:00,51.3,48.2,29.87,NNE,23,0.0,0.0,89,0.00,,,0.00,WUHU216HW,2013-05-12 06:22:00,
2013-05-12 02:24:00,51.1,48.0,29.87,NNE,23,0.0,0.0,89,0.00,,,0.00,WUHU216HW,2013-05-12 06:24:00,
2013-05-12 02:25:00,51.1,48.0,29.87,NNE,23,0.0,0.0,89,0.00,,,0.00,WUHU216HW,2013-05-12 06:25:00,
2013-05-12 02:26:00,51.1,48.0,29.87,NNE,23,0.0,0.0,89,0.00,,,0.00,WUHU216HW,2013-05-12 06:26:00,
2013-05-12 02:27:00,51.1,48.0,29.87,NNE,23,0.0,0.0,89,0.00,,,0.00,WUHU216HW,2013-05-12 06:27:00,
2013-05-12 02:28:00,51.1,48.0,29.87,NNE,23,0.0,0.0,89,0.00,,,0.00,WUHU216HW,2013-05-12 06:28:00,
2013-05-12 02:30:00,50.9,48.1,29.88,NNE,23,0.0,0.0,90,0.00,,,0.00,WUHU216HW,2013-05-12 06:30:00,
2013-05-12 02:31:00,50.9,48.1,29.88,NNE,23,0.0,0.0,90,0.00,,,0.00,WUHU216HW,2013-05-12 06:31:00,
2013-05-12 02:33:00,50.9,48.1,29.88,NNE,23,0.0,0.0,90,0.00,,,0.00,WUHU216HW,2013-05-12 06:33:00,
2013-05-12 02:34:00,50.9,48.1,29.87,NNE,23,0.0,0.0,90,0.00,,,0.00,WUHU216HW,2013-05-12 06:34:00,
2013-05-12 02:36:00,50.8,47.9,29.87,NNE,23,0.0,0.0,90,0.00,,,0.00,WUHU216HW,2013-05-12 06:36:00,
2013-05-12 02:37:00,50.8,47.6,29.87,NNE,23,0.0,0.0,89,0.00,,,0.00,WUHU216HW,2013-05-12 06:37:00,
2013-05-12 02:38:00,50.8,47.6,29.88,NNE,23,0.0,0.0,89,0.00,,,0.00,WUHU216HW,2013-05-12 06:38:00,
2013-05-12 02:39:00,50.8,47.6,29.87,NNE,23,0.0,0.0,89,0.00,,,0.00,WUHU216HW,2013-05-12 06:39:00,
2013-05-12 02:42:00,50.8,47.6,29.87,NNE,23,0.0,0.0,89,0.00,,,0.00,WUHU216HW,2013-05-12 06:42:00,
2013-05-12 02:43:00,50.8,47.6,29.87,NNE,23,0.0,0.0,89,0.00,,,0.00,WUHU216HW,2013-05-12 06:43:00,
2013-05-12 02:44:00,50.8,47.6,29.87,NNE,23,0.0,0.0,89,0.00,,,0.00,WUHU216HW,2013-05-12 06:44:00,
2013-05-12 02:48:00,50.6,47.4,29.87,NNE,23,0.0,0.0,89,0.00,,,0.00,WUHU216HW,2013-05-12 06:48:00,
2013-05-12 02:49:00,50.6,47.4,29.87,NNE,23,0.0,0.0,89,0.00,,,0.00,WUHU216HW,2013-05-12 06:49:00,
2013-05-12 02:50:00,50.6,47.4,29.87,NNE,23,0.0,0.0,89,0.00,,,0.00,WUHU216HW,2013-05-12 06:50:00,
2013-05-12 02:54:00,50.4,47.3,29.87,NNE,23,0.0,0.0,89,0.00,,,0.00,WUHU216HW,2013-05-12 06:54:00,
2013-05-12 02:56:00,50.4,47.3,29.87,NNE,23,0.0,0.0,89,0.00,,,0.00,WUHU216HW,2013-05-12 06:56:00,
2013-05-12 02:57:00,50.4,47.3,29.87,NNE,23,0.0,0.0,89,0.00,,,0.00,WUHU216HW,2013-05-12 06:57:00,
2013-05-12 02:59:00,50.4,47.3,29.87,NNE,23,0.0,0.0,89,0.00,,,0.00,WUHU216HW,2013-05-12 06:59:00,
2013-05-12 03:00:00,50.2,47.1,29.87,NNE,23,0.0,0.0,89,0.00,,,0.00,WUHU216HW,2013-05-12 07:00:00,
2013-05-12 03:02:00,50.2,47.1,29.87,NNE,23,0.0,0.0,89,0.00,,,0.00,WUHU216HW,2013-05-12 07:02:00,
2013-05-12 03:03:00,50.2,47.1,29.87,NNE,23,0.0,0.0,89,0.00,,,0.00,WUHU216HW,2013-05-12 07:03:00,
2013-05-12 03:04:00,50.2,47.3,29.87,NNE,23,0.0,0.0,90,0.00,,,0.00,WUHU216HW,2013-05-12 07:04:00,
2013-05-12 03:05:00,50.2,47.1,29.87,NNE,23,0.0,0.0,89,0.00,,,0.00,WUHU216HW,2013-05-12 07:05:00,
2013-05-12 03:06:00,50.2,47.3,29.87,NNE,23,0.0,0.0,90,0.00,,,0.00,WUHU216HW,2013-05-12 07:06:00,
2013-05-12 03:07:00,50.2,47.3,29.86,NNE,23,0.0,0.0,90,0.00,,,0.00,WUHU216HW,2013-05-12 07:07:00,
2013-05-12 03:08:00,50.2,47.3,29.86,NNE,23,0.0,0.0,90,0.00,,,0.00,WUHU216HW,2013-05-12 07:08:00,
2013-05-12 03:10:00,50.0,47.2,29.86,NNE,23,0.0,0.0,90,0.00,,,0.00,WUHU216HW,2013-05-12 07:10:00,
2013-05-12 03:11:00,50.0,46.9,29.86,NNE,23,0.0,0.0,89,0.00,,,0.00,WUHU216HW,2013-05-12 07:11:00,
2013-05-12 03:12:00,50.0,47.2,29.86,NNE,23,0.0,0.0,90,0.00,,,0.00,WUHU216HW,2013-05-12 07:12:00,
2013-05-12 03:13:00,50.0,47.2,29.86,NNE,23,0.0,0.0,90,0.00,,,0.00,WUHU216HW,2013-05-12 07:13:00,
2013-05-12 03:14:00,50.0,47.2,29.86,NNE,23,0.0,0.0,90,0.00,,,0.00,WUHU216HW,2013-05-12 07:14:00,
2013-05-12 03:16:00,50.0,47.2,29.86,NNE,23,0.0,0.0,90,0.00,,,0.00,WUHU216HW,2013-05-12 07:16:00,
2013-05-12 03:18:00,50.0,47.2,29.86,NNE,23,0.0,0.0,90,0.00,,,0.00,WUHU216HW,2013-05-12 07:18:00,
2013-05-12 03:20:00,50.0,47.2,29.86,NNE,23,0.0,0.0,90,0.00,,,0.00,WUHU216HW,2013-05-12 07:20:00,
2013-05-12 03:21:00,50.0,47.2,29.86,NNE,23,0.0,0.0,90,0.00,,,0.00,WUHU216HW,2013-05-12 07:21:00,
2013-05-12 03:22:00,50.0,47.2,29.86,NNE,23,0.0,0.0,90,0.00,,,0.00,WUHU216HW,2013-05-12 07:22:00,
2013-05-12 03:24:00,50.0,47.2,29.86,NNE,23,0.0,0.0,90,0.00,,,0.00,WUHU216HW,2013-05-12 07:24:00,
2013-05-12 03:26:00,50.0,47.2,29.86,NNE,23,0.0,0.0,90,0.00,,,0.00,WUHU216HW,2013-05-12 07:26:00,
2013-05-12 03:27:00,50.2,47.3,29.86,NNE,23,0.0,0.0,90,0.00,,,0.00,WUHU216HW,2013-05-12 07:27:00,
2013-05-12 03:29:00,50.2,47.3,29.86,NNE,23,0.0,0.0,90,0.00,,,0.00,WUHU216HW,2013-05-12 07:29:00,
2013-05-12 03:30:00,50.2,47.3,29.86,NNE,23,0.0,0.0,90,0.00,,,0.00,WUHU216HW,2013-05-12 07:30:00,
2013-05-12 03:31:00,50.2,47.3,29.86,NNE,23,0.0,0.0,90,0.00,,,0.00,WUHU216HW,2013-05-12 07:31:00,
2013-05-12 03:32:00,50.2,47.3,29.86,NNE,23,0.0,0.0,90,0.00,,,0.00,WUHU216HW,2013-05-12 07:32:00,
2013-05-12 03:34:00,50.4,47.5,29.86,NNE,23,0.0,0.0,90,0.00,,,0.00,WUHU216HW,2013-05-12 07:34:00,
2013-05-12 03:36:00,50.4,47.5,29.86,NNE,23,0.0,0.0,90,0.00,,,0.00,WUHU216HW,2013-05-12 07:36:00,
2013-05-12 03:37:00,50.4,47.5,29.86,NNE,23,0.0,0.0,90,0.00,,,0.00,WUHU216HW,2013-05-12 07:37:00,
2013-05-12 03:38:00,50.4,47.5,29.86,NNE,23,0.0,0.0,90,0.00,,,0.00,WUHU216HW,2013-05-12 07:38:00,
2013-05-12 03:39:00,50.4,47.5,29.86,NNE,23,0.0,0.0,90,0.00,,,0.00,WUHU216HW,2013-05-12 07:39:00,
2013-05-12 03:42:00,50.4,47.5,29.86,NNE,23,0.0,0.0,90,0.00,,,0.00,WUHU216HW,2013-05-12 07:42:00,
2013-05-12 03:43:00,50.4,47.5,29.86,NNE,23,0.0,0.0,90,0.00,,,0.00,WUHU216HW,2013-05-12 07:43:00,
2013-05-12 03:44:00,50.4,47.5,29.86,NNE,23,0.0,0.0,90,0.00,,,0.00,WUHU216HW,2013-05-12 07:44:00,
2013-05-12 03:46:00,50.4,47.5,29.86,NNE,23,0.0,0.0,90,0.00,,,0.00,WUHU216HW,2013-05-12 07:46:00,
2013-05-12 03:48:00,50.4,47.5,29.86,NNE,23,0.0,0.0,90,0.00,,,0.00,WUHU216HW,2013-05-12 07:48:00,
2013-05-12 03:50:00,50.4,47.5,29.86,NNE,23,0.0,0.0,90,0.00,,,0.00,WUHU216HW,2013-05-12 07:50:00,
2013-05-12 03:52:00,50.4,47.5,29.86,NNE,23,0.0,0.0,90,0.00,,,0.00,WUHU216HW,2013-05-12 07:52:00,
2013-05-12 03:53:00,50.4,47.5,29.86,NNE,23,0.0,0.0,90,0.00,,,0.00,WUHU216HW,2013-05-12 07:53:00,
2013-05-12 03:54:00,50.4,47.5,29.86,NNE,23,0.0,0.0,90,0.00,,,0.00,WUHU216HW,2013-05-12 07:54:00,
2013-05-12 03:57:00,50.6,47.7,29.87,NNE,23,0.0,0.0,90,0.00,,,0.00,WUHU216HW,2013-05-12 07:57:00,
2013-05-12 03:58:00,50.6,47.7,29.87,NNE,23,0.0,0.0,90,0.00,,,0.00,WUHU216HW,2013-05-12 07:58:00,
2013-05-12 03:59:00,50.6,47.7,29.87,North,0,0.0,0.0,90,0.00,,,0.00,WUHU216HW,2013-05-12 07:59:00,
2013-05-12 04:00:00,50.8,47.9,29.87,NNW,338,0.0,0.0,90,0.00,,,0.00,WUHU216HW,2013-05-12 08:00:00,
2013-05-12 04:04:00,50.8,47.9,29.87,WNW,293,0.0,0.0,90,0.00,,,0.00,WUHU216HW,2013-05-12 08:04:00,
2013-05-12 04:05:00,50.8,47.9,29.87,WNW,293,0.0,0.0,90,0.00,,,0.00,WUHU216HW,2013-05-12 08:05:00,
2013-05-12 04:06:00,50.8,47.9,29.87,WNW,293,0.0,0.0,90,0.00,,,0.00,WUHU216HW,2013-05-12 08:06:00,
2013-05-12 04:07:00,50.6,47.7,29.87,WNW,293,0.0,0.0,90,0.00,,,0.00,WUHU216HW,2013-05-12 08:07:00,
2013-05-12 04:10:00,50.6,47.7,29.87,WNW,293,0.0,0.0,90,0.00,,,0.00,WUHU216HW,2013-05-12 08:10:00,
2013-05-12 04:11:00,50.6,47.7,29.87,WNW,293,0.0,0.0,90,0.00,,,0.00,WUHU216HW,2013-05-12 08:11:00,
2013-05-12 04:13:00,50.6,47.7,29.87,WNW,293,0.0,0.0,90,0.00,,,0.00,WUHU216HW,2013-05-12 08:13:00,
2013-05-12 04:16:00,50.4,47.5,29.87,WNW,293,0.0,0.0,90,0.00,,,0.00,WUHU216HW,2013-05-12 08:16:00,
2013-05-12 04:17:00,50.4,47.5,29.87,WNW,293,0.0,0.0,90,0.00,,,0.00,WUHU216HW,2013-05-12 08:17:00,
2013-05-12 04:18:00,50.4,47.5,29.87,WNW,293,0.0,0.0,90,0.00,,,0.00,WUHU216HW,2013-05-12 08:18:00,
2013-05-12 04:19:00,50.4,47.5,29.87,WNW,293,0.0,0.0,90,0.00,,,0.00,WUHU216HW,2013-05-12 08:19:00,
2013-05-12 04:21:00,50.4,47.5,29.87,WNW,293,0.0,0.0,90,0.00,,,0.00,WUHU216HW,2013-05-12 08:21:00,
2013-05-12 04:22:00,50.4,47.8,29.87,WNW,293,0.0,0.0,91,0.00,,,0.00,WUHU216HW,2013-05-12 08:22:00,
2013-05-12 04:23:00,50.4,47.8,29.87,WNW,293,0.0,0.0,91,0.00,,,0.00,WUHU216HW,2013-05-12 08:23:00,
2013-05-12 04:24:00,50.4,47.5,29.87,WNW,293,0.0,0.0,90,0.00,,,0.00,WUHU216HW,2013-05-12 08:24:00,
2013-05-12 04:26:00,50.6,48.0,29.87,WNW,293,0.0,0.0,91,0.00,,,0.00,WUHU216HW,2013-05-12 08:26:00,
2013-05-12 04:28:00,50.4,47.5,29.87,WNW,293,0.9,0.9,90,0.00,,,0.00,WUHU216HW,2013-05-12 08:28:00,
2013-05-12 04:29:00,50.6,47.7,29.87,WNW,285,0.7,1.1,90,0.00,,,0.00,WUHU216HW,2013-05-12 08:29:00,
2013-05-12 04:30:00,50.6,48.0,29.87,NNW,339,0.7,1.1,91,0.00,,,0.00,WUHU216HW,2013-05-12 08:30:00,
2013-05-12 04:31:00,50.6,48.0,29.87,NNW,338,1.1,3.1,91,0.00,,,0.00,WUHU216HW,2013-05-12 08:31:00,
2013-05-12 04:33:00,50.8,48.2,29.87,NW,310,1.0,3.1,91,0.00,,,0.00,WUHU216HW,2013-05-12 08:33:00,
2013-05-12 04:35:00,50.9,48.3,29.87,NNW,327,0.5,3.1,91,0.00,,,0.00,WUHU216HW,2013-05-12 08:35:00,
2013-05-12 04:36:00,50.9,48.3,29.87,NW,315,0.7,3.1,91,0.00,,,0.00,WUHU216HW,2013-05-12 08:36:00,
2013-05-12 04:37:00,50.9,48.3,29.87,NW,322,0.6,3.1,91,0.00,,,0.00,WUHU216HW,2013-05-12 08:37:00,
2013-05-12 04:38:00,51.1,48.5,29.87,WNW,303,0.4,3.1,91,0.00,,,0.00,WUHU216HW,2013-05-12 08:38:00,
2013-05-12 04:41:00,51.1,48.5,29.87,NW,317,0.3,3.1,91,0.00,,,0.00,WUHU216HW,2013-05-12 08:41:00,
2013-05-12 04:42:00,51.3,48.7,29.87,NW,311,0.5,2.0,91,0.00,,,0.00,WUHU216HW,2013-05-12 08:42:00,
2013-05-12 04:43:00,51.3,48.7,29.87,WNW,302,0.6,1.6,91,0.00,,,0.00,WUHU216HW,2013-05-12 08:43:00,
2013-05-12 04:44:00,51.3,48.7,29.87,NW,308,1.6,2.7,91,0.00,,,0.00,WUHU216HW,2013-05-12 08:44:00,
2013-05-12 04:46:00,51.3,48.7,29.87,NNW,338,0.7,2.7,91,0.00,,,0.00,WUHU216HW,2013-05-12 08:46:00,
2013-05-12 04:47:00,51.3,48.7,29.87,NNW,332,0.5,2.7,91,0.00,,,0.00,WUHU216HW,2013-05-12 08:47:00,
2013-05-12 04:48:00,51.3,48.7,29.87,NNW,328,0.5,2.7,91,0.00,,,0.00,WUHU216HW,2013-05-12 08:48:00,
2013-05-12 04:49:00,51.3,48.7,29.87,NW,315,0.7,2.7,91,0.00,,,0.00,WUHU216HW,2013-05-12 08:49:00,
2013-05-12 04:50:00,51.3,48.7,29.87,North,0,1.6,2.7,91,0.00,,,0.00,WUHU216HW,2013-05-12 08:50:00,
2013-05-12 04:51:00,51.3,48.7,29.87,North,359,1.0,2.7,91,0.00,,,0.00,WUHU216HW,2013-05-12 08:51:00,
2013-05-12 04:52:00,51.3,48.7,29.87,NNW,347,0.4,2.7,91,0.00,,,0.00,WUHU216HW,2013-05-12 08:52:00,
2013-05-12 04:54:00,51.3,48.7,29.87,WNW,293,0.7,2.5,91,0.00,,,0.00,WUHU216HW,2013-05-12 08:54:00,
2013-05-12 04:55:00,51.3,48.7,29.87,WNW,293,1.3,2.5,91,0.00,,,0.00,WUHU216HW,2013-05-12 08:55:00,
2013-05-12 04:58:00,51.3,48.7,29.87,WNW,286,0.9,2.5,91,0.00,,,0.00,WUHU216HW,2013-05-12 08:58:00,
2013-05-12 04:59:00,51.3,48.7,29.87,WNW,288,0.7,2.5,91,0.00,,,0.00,WUHU216HW,2013-05-12 08:59:00,
2013-05-12 05:00:00,51.3,48.7,29.87,WNW,285,0.8,2.5,91,0.00,,,0.00,WUHU216HW,2013-05-12 09:00:00,
2013-05-12 05:04:00,51.3,48.7,29.87,NW,315,1.1,1.8,91,0.00,,,0.00,WUHU216HW,2013-05-12 09:04:00,
2013-05-12 05:05:00,51.3,48.7,29.87,NNW,336,0.9,1.8,91,0.00,,,0.00,WUHU216HW,2013-05-12 09:05:00,
2013-05-12 05:06:00,51.3,48.7,29.87,NW,315,2.5,2.5,91,0.00,,,0.00,WUHU216HW,2013-05-12 09:06:00,
2013-05-12 05:09:00,51.5,48.9,29.87,NNW,341,0.7,2.5,91,0.00,,,0.00,WUHU216HW,2013-05-12 09:09:00,
2013-05-12 05:10:00,51.5,48.9,29.87,NNW,340,0.6,2.5,91,0.00,,,0.00,WUHU216HW,2013-05-12 09:10:00,
2013-05-12 05:11:00,51.5,48.9,29.87,NNW,338,0.2,2.5,91,0.00,,,0.00,WUHU216HW,2013-05-12 09:11:00,
2013-05-12 05:12:00,51.5,48.9,29.88,NW,315,0.4,2.5,91,0.00,,,0.00,WUHU216HW,2013-05-12 09:12:00,
2013-05-12 05:15:00,51.5,48.9,29.88,NW,315,0.9,2.9,91,0.00,,,0.00,WUHU216HW,2013-05-12 09:15:00,
2013-05-12 05:16:00,51.7,49.1,29.87,North,0,1.6,2.9,91,0.00,,,0.00,WUHU216HW,2013-05-12 09:16:00,
2013-05-12 05:17:00,51.7,49.1,29.87,NNW,340,1.1,2.9,91,0.00,,,0.00,WUHU216HW,2013-05-12 09:17:00,
2013-05-12 05:21:00,51.8,49.5,29.87,NNE,23,0.4,2.9,92,0.00,,,0.00,WUHU216HW,2013-05-12 09:21:00,
2013-05-12 05:22:00,51.8,49.5,29.87,NNE,23,0.4,2.9,92,0.00,,,0.00,WUHU216HW,2013-05-12 09:22:00,
2013-05-12 05:23:00,51.8,49.5,29.87,NNW,336,0.5,1.8,92,0.00,,,0.00,WUHU216HW,2013-05-12 09:23:00,
2013-05-12 05:26:00,52.0,49.7,29.87,NNW,338,1.6,1.8,92,0.00,,,0.00,WUHU216HW,2013-05-12 09:26:00,
2013-05-12 05:27:00,52.0,49.7,29.87,NW,318,1.1,1.8,92,0.00,,,0.00,WUHU216HW,2013-05-12 09:27:00,
2013-05-12 05:28:00,52.0,49.7,29.88,NW,315,0.9,1.6,92,0.00,,,0.00,WUHU216HW,2013-05-12 09:28:00,
2013-05-12 05:29:00,52.0,49.7,29.88,NW,325,0.7,1.6,92,0.00,,,0.00,WUHU216HW,2013-05-12 09:29:00,
2013-05-12 05:32:00,52.2,49.9,29.88,NW,315,1.1,1.6,92,0.00,,,0.00,WUHU216HW,2013-05-12 09:32:00,
2013-05-12 05:33:00,52.2,49.9,29.88,NNW,332,1.2,3.4,92,0.00,,,0.00,WUHU216HW,2013-05-12 09:33:00,
2013-05-12 05:34:00,52.2,49.9,29.87,North,0,4.7,4.7,92,0.00,,,0.00,WUHU216HW,2013-05-12 09:34:00,
2013-05-12 05:35:00,52.2,49.9,29.88,NNW,348,2.0,4.7,92,0.00,,,0.00,WUHU216HW,2013-05-12 09:35:00,
2013-05-12 05:38:00,52.2,49.9,29.88,NNW,341,1.1,4.7,92,0.00,,,0.00,WUHU216HW,2013-05-12 09:38:00,
2013-05-12 05:39:00,52.2,49.9,29.88,NNW,344,1.6,4.7,92,0.00,,,0.00,WUHU216HW,2013-05-12 09:39:00,
2013-05-12 05:40:00,52.2,49.9,29.88,NW,326,0.4,4.7,92,0.00,,,0.00,WUHU216HW,2013-05-12 09:40:00,
2013-05-12 05:41:00,52.2,49.9,29.88,NNW,338,0.9,4.7,92,0.00,,,0.00,WUHU216HW,2013-05-12 09:41:00,
2013-05-12 05:44:00,52.4,49.8,29.88,NW,315,1.8,4.7,91,0.00,,,0.00,WUHU216HW,2013-05-12 09:44:00,
2013-05-12 05:45:00,52.4,49.8,29.88,NNW,327,1.3,3.4,91,0.00,,,0.00,WUHU216HW,2013-05-12 09:45:00,
2013-05-12 05:46:00,52.4,49.8,29.88,NW,321,1.3,3.4,91,0.00,,,0.00,WUHU216HW,2013-05-12 09:46:00,
2013-05-12 05:48:00,52.4,49.8,29.88,NW,314,0.8,3.4,91,0.00,,,0.00,WUHU216HW,2013-05-12 09:48:00,
2013-05-12 05:50:00,52.4,49.8,29.88,WNW,293,1.1,3.4,91,0.00,,,0.00,WUHU216HW,2013-05-12 09:50:00,
2013-05-12 05:51:00,52.4,49.8,29.88,NW,322,0.7,3.4,91,0.00,,,0.00,WUHU216HW,2013-05-12 09:51:00,
2013-05-12 05:52:00,52.2,49.6,29.88,NW,307,0.6,2.2,91,0.00,,,0.00,WUHU216HW,2013-05-12 09:52:00,
2013-05-12 05:53:00,52.2,49.6,29.88,NW,315,2.0,2.0,91,0.00,,,0.00,WUHU216HW,2013-05-12 09:53:00,
2013-05-12 05:56:00,52.2,49.3,29.88,NNW,338,1.3,2.0,90,0.00,,,0.00,WUHU216HW,2013-05-12 09:56:00,
2013-05-12 05:57:00,52.0,48.9,29.88,NNW,338,1.8,2.0,89,0.00,,,0.00,WUHU216HW,2013-05-12 09:57:00,
2013-05-12 05:58:00,52.0,48.9,29.88,West,270,1.8,2.0,89,0.00,,,0.00,WUHU216HW,2013-05-12 09:58:00,
2013-05-12 05:59:00,51.8,48.7,29.88,NNW,338,1.6,2.0,89,0.00,,,0.00,WUHU216HW,2013-05-12 09:59:00,
2013-05-12 06:01:00,51.8,48.7,29.88,NW,312,0.9,2.0,89,0.00,,,0.00,WUHU216HW,2013-05-12 10:01:00,
2013-05-12 06:03:00,51.8,48.7,29.89,NNW,338,1.1,2.0,89,0.00,,,0.00,WUHU216HW,2013-05-12 10:03:00,
2013-05-12 06:05:00,51.7,48.5,29.89,NW,315,1.6,1.8,89,0.00,,,0.00,WUHU216HW,2013-05-12 10:05:00,
2013-05-12 06:07:00,51.5,48.3,29.89,NW,311,1.8,3.1,89,0.00,,,0.00,WUHU216HW,2013-05-12 10:07:00,
2013-05-12 06:08:00,51.5,48.3,29.89,NW,315,1.7,3.1,89,0.00,,,0.00,WUHU216HW,2013-05-12 10:08:00,
2013-05-12 06:10:00,51.5,48.3,29.89,NW,315,1.1,3.1,89,0.00,,,0.00,WUHU216HW,2013-05-12 10:10:00,
2013-05-12 06:13:00,51.5,48.3,29.89,NNW,344,1.5,3.1,89,0.00,,,0.00,WUHU216HW,2013-05-12 10:13:00,
2013-05-12 06:15:00,51.3,48.2,29.89,NW,315,2.5,3.1,89,0.00,,,0.00,WUHU216HW,2013-05-12 10:15:00,
2013-05-12 06:19:00,51.3,47.8,29.89,NW,317,0.8,4.9,88,0.00,,,0.00,WUHU216HW,2013-05-12 10:19:00,
2013-05-12 06:20:00,51.1,47.6,29.89,NNW,338,2.0,4.9,88,0.00,,,0.00,WUHU216HW,2013-05-12 10:20:00,
2013-05-12 06:21:00,51.3,47.8,29.89,NNW,338,2.0,4.9,88,0.00,,,0.00,WUHU216HW,2013-05-12 10:21:00,
2013-05-12 06:24:00,51.1,47.6,29.89,North,0,0.9,4.9,88,0.00,,,0.00,WUHU216HW,2013-05-12 10:24:00,
2013-05-12 06:25:00,50.9,47.4,29.89,North,0,0.9,4.9,88,0.00,,,0.00,WUHU216HW,2013-05-12 10:25:00,
2013-05-12 06:26:00,50.9,47.2,29.89,NW,324,1.0,2.5,87,0.00,,,0.00,WUHU216HW,2013-05-12 10:26:00,
2013-05-12 06:28:00,50.9,47.2,29.89,WNW,293,0.9,2.5,87,0.00,,,0.00,WUHU216HW,2013-05-12 10:28:00,
2013-05-12 06:31:00,50.8,46.6,29.90,NNW,335,1.9,3.4,86,0.00,,,0.00,WUHU216HW,2013-05-12 10:31:00,
2013-05-12 06:32:00,50.9,46.8,29.90,NNW,339,1.2,3.4,86,0.00,,,0.00,WUHU216HW,2013-05-12 10:32:00,
2013-05-12 06:33:00,50.9,46.8,29.90,NNW,338,1.2,3.4,86,0.00,,,0.00,WUHU216HW,2013-05-12 10:33:00,
2013-05-12 06:34:00,50.8,46.6,29.90,NNW,333,0.9,3.4,86,0.00,,,0.00,WUHU216HW,2013-05-12 10:34:00,
2013-05-12 06:36:00,50.8,46.6,29.90,NNE,20,0.6,3.4,86,0.00,,,0.00,WUHU216HW,2013-05-12 10:36:00,
2013-05-12 06:37:00,50.8,46.6,29.90,NW,315,1.3,3.4,86,0.00,,,0.00,WUHU216HW,2013-05-12 10:37:00,
2013-05-12 06:38:00,50.8,46.6,29.90,North,0,0.9,3.4,86,0.00,,,0.00,WUHU216HW,2013-05-12 10:38:00,
2013-05-12 06:39:00,50.6,46.4,29.90,North,349,0.9,2.9,86,0.00,,,0.00,WUHU216HW,2013-05-12 10:39:00,
2013-05-12 06:42:00,50.8,46.6,29.90,NW,326,1.4,3.1,86,0.00,,,0.00,WUHU216HW,2013-05-12 10:42:00,
2013-05-12 06:44:00,50.6,46.4,29.90,WNW,294,0.9,3.1,86,0.00,,,0.00,WUHU216HW,2013-05-12 10:44:00,
2013-05-12 06:45:00,50.6,46.4,29.90,NW,315,1.1,3.1,86,0.00,,,0.00,WUHU216HW,2013-05-12 10:45:00,
2013-05-12 06:47:00,50.6,45.9,29.90,NNW,335,2.1,4.9,84,0.00,,,0.00,WUHU216HW,2013-05-12 10:47:00,
2013-05-12 06:48:00,50.6,46.2,29.90,NW,319,1.1,4.9,85,0.00,,,0.00,WUHU216HW,2013-05-12 10:48:00,
2013-05-12 06:49:00,50.6,45.9,29.91,NW,309,1.0,4.9,84,0.00,,,0.00,WUHU216HW,2013-05-12 10:49:00,
2013-05-12 06:50:00,50.6,45.9,29.91,NNW,338,3.1,4.9,84,0.00,,,0.00,WUHU216HW,2013-05-12 10:50:00,
2013-05-12 06:52:00,50.6,45.9,29.90,NW,315,2.5,4.9,84,0.00,,,0.00,WUHU216HW,2013-05-12 10:52:00,
2013-05-12 06:53:00,50.6,45.9,29.90,NW,321,1.2,4.9,84,0.00,,,0.00,WUHU216HW,2013-05-12 10:53:00,
2013-05-12 06:54:00,50.6,45.9,29.90,West,270,1.1,4.9,84,0.00,,,0.00,WUHU216HW,2013-05-12 10:54:00,
2013-05-12 06:56:00,50.6,45.9,29.90,NNW,330,1.3,3.1,84,0.00,,,0.00,WUHU216HW,2013-05-12 10:56:00,
2013-05-12 06:58:00,50.6,45.9,29.91,NW,317,0.6,3.1,84,0.00,,,0.00,WUHU216HW,2013-05-12 10:58:00,
2013-05-12 06:59:00,50.6,45.9,29.90,NNW,338,1.1,3.1,84,0.00,,,0.00,WUHU216HW,2013-05-12 10:59:00,
2013-05-12 07:00:00,50.6,45.9,29.91,North,0,3.4,3.4,84,0.00,,,0.00,WUHU216HW,2013-05-12 11:00:00,
2013-05-12 07:01:00,50.4,45.7,29.91,NNW,332,1.9,3.4,84,0.00,,,0.00,WUHU216HW,2013-05-12 11:01:00,
2013-05-12 07:02:00,50.4,45.7,29.91,NNW,338,2.5,3.4,84,0.00,,,0.00,WUHU216HW,2013-05-12 11:02:00,
2013-05-12 07:04:00,50.6,45.5,29.91,NW,319,1.4,3.4,83,0.00,,,0.00,WUHU216HW,2013-05-12 11:04:00,
2013-05-12 07:05:00,50.6,45.5,29.91,NNW,329,1.3,3.4,83,0.00,,,0.00,WUHU216HW,2013-05-12 11:05:00,
2013-05-12 07:06:00,50.6,45.5,29.91,North,349,1.1,3.4,83,0.00,,,0.00,WUHU216HW,2013-05-12 11:06:00,
2013-05-12 07:07:00,50.6,45.9,29.91,NNW,347,0.8,3.4,84,0.00,,,0.00,WUHU216HW,2013-05-12 11:07:00,
2013-05-12 07:10:00,50.6,45.3,29.91,NW,325,2.8,4.7,82,0.00,,,0.00,WUHU216HW,2013-05-12 11:10:00,
2013-05-12 07:11:00,50.8,45.5,29.91,NNW,335,1.1,4.7,82,0.00,,,0.00,WUHU216HW,2013-05-12 11:11:00,
2013-05-12 07:12:00,50.8,45.5,29.91,WNW,293,1.3,4.7,82,0.00,,,0.00,WUHU216HW,2013-05-12 11:12:00,
2013-05-12 07:13:00,50.8,45.5,29.91,East,90,2.9,4.7,82,0.00,,,0.00,WUHU216HW,2013-05-12 11:13:00,
2013-05-12 07:15:00,50.8,44.8,29.91,North,352,3.6,5.6,80,0.00,,,0.00,WUHU216HW,2013-05-12 11:15:00,
2013-05-12 07:17:00,50.9,43.3,29.91,NW,315,5.4,5.6,75,0.00,,,0.00,WUHU216HW,2013-05-12 11:17:00,
2013-05-12 07:18:00,50.9,42.6,29.91,NNW,341,4.3,6.5,73,0.00,,,0.00,WUHU216HW,2013-05-12 11:18:00,
2013-05-12 07:21:00,51.1,42.8,29.91,NNW,338,4.0,6.5,73,0.00,,,0.00,WUHU216HW,2013-05-12 11:21:00,
2013-05-12 07:22:00,51.3,43.7,29.92,NNW,338,4.0,6.5,75,0.00,,,0.00,WUHU216HW,2013-05-12 11:22:00,
2013-05-12 07:23:00,51.5,42.9,29.92,NNE,23,3.4,6.5,72,0.00,,,0.00,WUHU216HW,2013-05-12 11:23:00,
2013-05-12 07:25:00,51.5,43.5,29.92,NNW,338,2.2,6.5,74,0.00,,,0.00,WUHU216HW,2013-05-12 11:25:00,
2013-05-12 07:27:00,51.7,43.0,29.92,NNE,23,6.0,6.5,72,0.00,,,0.00,WUHU216HW,2013-05-12 11:27:00,
2013-05-12 07:28:00,51.7,42.7,29.92,North,351,4.3,6.3,71,0.00,,,0.00,WUHU216HW,2013-05-12 11:28:00,
2013-05-12 07:29:00,51.7,43.0,29.92,NNW,338,3.6,6.3,72,0.00,,,0.00,WUHU216HW,2013-05-12 11:29:00,
2013-05-12 07:31:00,51.8,43.5,29.92,NNW,332,2.4,6.3,73,0.00,,,0.00,WUHU216HW,2013-05-12 11:31:00,
2013-05-12 07:32:00,51.8,43.2,29.92,NNW,338,4.0,6.3,72,0.00,,,0.00,WUHU216HW,2013-05-12 11:32:00,
2013-05-12 07:33:00,51.8,43.5,29.92,NNW,336,1.9,6.3,73,0.00,,,0.00,WUHU216HW,2013-05-12 11:33:00,
2013-05-12 07:34:00,51.8,43.2,29.92,NNE,23,2.7,6.3,72,0.00,,,0.00,WUHU216HW,2013-05-12 11:34:00,
2013-05-12 07:35:00,51.8,43.5,29.92,North,353,1.4,6.3,73,0.00,,,0.00,WUHU216HW,2013-05-12 11:35:00,
2013-05-12 07:36:00,52.0,44.0,29.92,North,355,1.3,6.3,74,0.00,,,0.00,WUHU216HW,2013-05-12 11:36:00,
2013-05-12 07:38:00,52.2,44.6,29.92,WSW,248,1.8,4.0,75,0.00,,,0.00,WUHU216HW,2013-05-12 11:38:00,
2013-05-12 07:39:00,52.2,43.8,29.92,NNW,338,2.0,4.7,73,0.00,,,0.00,WUHU216HW,2013-05-12 11:39:00,
2013-05-12 07:40:00,52.4,43.7,29.92,NNW,339,2.3,4.7,72,0.00,,,0.00,WUHU216HW,2013-05-12 11:40:00,
2013-05-12 07:41:00,52.7,44.0,29.92,NNW,338,3.8,4.7,72,0.00,,,0.00,WUHU216HW,2013-05-12 11:41:00,
2013-05-12 07:44:00,53.5,44.3,29.92,North,0,8.1,8.1,71,0.00,,,0.00,WUHU216HW,2013-05-12 11:44:00,
2013-05-12 07:45:00,53.6,44.1,29.92,North,353,3.5,8.1,70,0.00,,,0.00,WUHU216HW,2013-05-12 11:45:00,
2013-05-12 07:48:00,54.2,45.4,29.92,NNW,338,2.7,8.1,72,0.00,,,0.00,WUHU216HW,2013-05-12 11:48:00,
2013-05-12 07:49:00,54.2,43.8,29.93,North,0,3.8,8.1,68,0.00,,,0.00,WUHU216HW,2013-05-12 11:49:00,
2013-05-12 07:50:00,54.2,43.8,29.93,North,0,3.8,8.1,68,0.00,,,0.00,WUHU216HW,2013-05-12 11:50:00,
2013-05-12 07:53:00,54.0,44.1,29.93,North,0,2.7,8.1,69,0.00,,,0.00,WUHU216HW,2013-05-12 11:53:00,
2013-05-12 07:55:00,54.0,44.8,29.93,North,357,1.4,6.3,71,0.00,,,0.00,WUHU216HW,2013-05-12 11:55:00,
2013-05-12 07:56:00,54.0,43.3,29.93,NNE,23,5.4,6.3,67,0.00,,,0.00,WUHU216HW,2013-05-12 11:56:00,
2013-05-12 07:59:00,54.0,44.1,29.93,NW,321,2.4,6.3,69,0.00,,,0.00,WUHU216HW,2013-05-12 11:59:00,
2013-05-12 08:00:00,54.0,43.7,29.93,NNW,338,3.6,5.4,68,0.00,,,0.00,WUHU216HW,2013-05-12 12:00:00,
2013-05-12 08:01:00,54.0,42.8,29.93,NNW,338,3.1,5.4,66,0.00,,,0.00,WUHU216HW,2013-05-12 12:01:00,
2013-05-12 08:02:00,54.0,43.7,29.93,NNW,328,3.0,5.4,68,0.00,,,0.00,WUHU216HW,2013-05-12 12:02:00,
2013-05-12 08:04:00,54.4,44.0,29.93,NNW,338,2.6,5.4,68,0.00,,,0.00,WUHU216HW,2013-05-12 12:04:00,
2013-05-12 08:06:00,55.1,45.9,29.94,NW,315,2.0,5.4,71,0.00,,,0.00,WUHU216HW,2013-05-12 12:06:00,
2013-05-12 08:07:00,55.3,45.7,29.94,North,0,5.4,5.4,70,0.00,,,0.00,WUHU216HW,2013-05-12 12:07:00,
2013-05-12 08:08:00,55.6,44.4,29.94,NNW,339,2.8,5.4,66,0.00,,,0.00,WUHU216HW,2013-05-12 12:08:00,
2013-05-12 08:09:00,56.0,45.5,29.94,NNW,328,2.4,5.4,68,0.00,,,0.00,WUHU216HW,2013-05-12 12:09:00,
2013-05-12 08:12:00,57.8,47.7,29.94,NNW,338,0.7,5.4,69,0.00,,,0.00,WUHU216HW,2013-05-12 12:12:00,
2013-05-12 08:13:00,58.0,48.2,29.94,NNW,343,0.6,5.4,70,0.00,,,0.00,WUHU216HW,2013-05-12 12:13:00,
2013-05-12 08:15:00,59.6,49.4,29.94,NW,315,2.2,5.4,69,0.00,,,0.00,WUHU216HW,2013-05-12 12:15:00,
2013-05-12 08:18:00,60.1,47.9,29.94,North,9,2.7,3.8,64,0.00,,,0.00,WUHU216HW,2013-05-12 12:18:00,
2013-05-12 08:19:00,60.3,48.1,29.94,NNW,339,1.5,3.8,64,0.00,,,0.00,WUHU216HW,2013-05-12 12:19:00,
2013-05-12 08:20:00,60.5,48.7,29.94,NNE,23,1.8,3.8,65,0.00,,,0.00,WUHU216HW,2013-05-12 12:20:00,
2013-05-12 08:21:00,60.5,46.6,29.94,NNW,338,4.0,5.8,60,0.00,,,0.00,WUHU216HW,2013-05-12 12:21:00,
2013-05-12 08:23:00,60.1,46.7,29.94,North,0,4.7,5.8,61,0.00,,,0.00,WUHU216HW,2013-05-12 12:23:00,
2013-05-12 08:24:00,59.8,46.4,29.94,NW,316,3.2,5.8,61,0.00,,,0.00,WUHU216HW,2013-05-12 12:24:00,
2013-05-12 08:25:00,59.6,46.5,29.94,NE,45,2.7,5.8,62,0.00,,,0.00,WUHU216HW,2013-05-12 12:25:00,
2013-05-12 08:26:00,59.6,46.5,29.94,North,352,1.4,5.8,62,0.00,,,0.00,WUHU216HW,2013-05-12 12:26:00,
2013-05-12 08:29:00,59.4,45.1,29.94,NNE,23,7.8,7.8,59,0.00,,,0.00,WUHU216HW,2013-05-12 12:29:00,
2013-05-12 08:30:00,59.0,45.2,29.94,North,10,5.0,7.8,60,0.00,,,0.00,WUHU216HW,2013-05-12 12:30:00,
2013-05-12 08:31:00,58.9,44.1,29.94,North,10,4.9,7.8,58,0.00,,,0.00,WUHU216HW,2013-05-12 12:31:00,
2013-05-12 08:32:00,58.5,45.1,29.94,North,349,2.4,7.8,61,0.00,,,0.00,WUHU216HW,2013-05-12 12:32:00,
2013-05-12 08:33:00,58.1,44.4,29.94,NNE,23,3.8,7.8,60,0.00,,,0.00,WUHU216HW,2013-05-12 12:33:00,
2013-05-12 08:34:00,57.6,44.3,29.94,North,357,4.3,7.8,61,0.00,,,0.00,WUHU216HW,2013-05-12 12:34:00,
2013-05-12 08:36:00,57.2,43.1,29.94,North,354,3.4,7.8,59,0.00,,,0.00,WUHU216HW,2013-05-12 12:36:00,
2013-05-12 08:37:00,57.1,43.4,29.94,NNW,348,3.2,7.8,60,0.00,,,0.00,WUHU216HW,2013-05-12 12:37:00,
2013-05-12 08:38:00,56.5,43.2,29.94,NNW,340,3.3,7.8,61,0.00,,,0.00,WUHU216HW,2013-05-12 12:38:00,
2013-05-12 08:40:00,56.3,42.7,29.94,NNW,338,4.7,7.6,60,0.00,,,0.00,WUHU216HW,2013-05-12 12:40:00,
2013-05-12 08:42:00,56.2,43.8,29.94,NNW,338,5.1,7.6,63,0.00,,,0.00,WUHU216HW,2013-05-12 12:42:00,
2013-05-12 08:43:00,56.2,42.5,29.94,North,0,8.5,8.5,60,0.00,,,0.00,WUHU216HW,2013-05-12 12:43:00,
2013-05-12 08:44:00,56.0,42.8,29.94,West,270,5.6,8.5,61,0.00,,,0.00,WUHU216HW,2013-05-12 12:44:00,
2013-05-12 08:46:00,55.8,42.6,29.94,North,4,6.1,10.1,61,0.00,,,0.00,WUHU216HW,2013-05-12 12:46:00,
2013-05-12 08:48:00,55.8,42.9,29.94,NNW,338,2.7,10.1,62,0.00,,,0.00,WUHU216HW,2013-05-12 12:48:00,
2013-05-12 08:49:00,55.8,43.4,29.94,NNW,346,2.8,10.1,63,0.00,,,0.00,WUHU216HW,2013-05-12 12:49:00,
2013-05-12 08:51:00,55.8,42.9,29.94,NNW,338,5.6,10.1,62,0.00,,,0.00,WUHU216HW,2013-05-12 12:51:00,
2013-05-12 08:52:00,55.6,43.2,29.94,North,354,3.2,10.1,63,0.00,,,0.00,WUHU216HW,2013-05-12 12:52:00,
2013-05-12 08:54:00,55.8,42.9,29.94,NNE,23,4.3,10.1,62,0.00,,,0.00,WUHU216HW,2013-05-12 12:54:00,
2013-05-12 08:56:00,55.8,42.6,29.94,East,90,5.1,8.1,61,0.00,,,0.00,WUHU216HW,2013-05-12 12:56:00,
2013-05-12 08:57:00,55.8,42.6,29.94,North,6,4.0,8.1,61,0.00,,,0.00,WUHU216HW,2013-05-12 12:57:00,
2013-05-12 08:59:00,55.8,42.9,29.95,North,0,3.4,8.1,62,0.00,,,0.00,WUHU216HW,2013-05-12 12:59:00,
2013-05-12 09:01:00,55.8,41.7,29.95,East,90,4.7,5.8,59,0.00,,,0.00,WUHU216HW,2013-05-12 13:01:00,
2013-05-12 09:02:00,55.8,41.2,29.95,NNW,338,6.0,6.9,58,0.00,,,0.00,WUHU216HW,2013-05-12 13:02:00,
2013-05-12 09:03:00,55.8,41.2,29.95,WNW,293,5.4,6.9,58,0.00,,,0.00,WUHU216HW,2013-05-12 13:03:00,
2013-05-12 09:05:00,55.8,41.2,29.95,NNW,342,4.2,7.2,58,0.00,,,0.00,WUHU216HW,2013-05-12 13:05:00,
2013-05-12 09:07:00,55.8,41.2,29.95,North,0,4.0,7.2,58,0.00,,,0.00,WUHU216HW,2013-05-12 13:07:00,
2013-05-12 09:08:00,55.8,41.7,29.95,NNW,345,4.4,7.2,59,0.00,,,0.00,WUHU216HW,2013-05-12 13:08:00,
2013-05-12 09:10:00,55.8,40.7,29.95,North,351,4.8,7.2,57,0.00,,,0.00,WUHU216HW,2013-05-12 13:10:00,
2013-05-12 09:11:00,55.8,41.2,29.95,NNW,344,3.6,7.2,58,0.00,,,0.00,WUHU216HW,2013-05-12 13:11:00,
2013-05-12 09:12:00,55.8,41.2,29.95,NNW,345,3.1,7.2,58,0.00,,,0.00,WUHU216HW,2013-05-12 13:12:00,
2013-05-12 09:13:00,56.0,41.4,29.95,North,354,2.7,7.2,58,0.00,,,0.00,WUHU216HW,2013-05-12 13:13:00,
2013-05-12 09:17:00,56.2,41.0,29.95,NNW,338,3.1,7.2,57,0.00,,,0.00,WUHU216HW,2013-05-12 13:17:00,
2013-05-12 09:18:00,56.2,40.6,29.95,North,0,4.7,7.2,56,0.00,,,0.00,WUHU216HW,2013-05-12 13:18:00,
2013-05-12 09:23:00,56.3,41.2,29.95,NNW,347,2.1,6.9,57,0.00,,,0.00,WUHU216HW,2013-05-12 13:23:00,
2013-05-12 09:24:00,56.3,41.2,29.95,NE,45,2.2,6.9,57,0.00,,,0.00,WUHU216HW,2013-05-12 13:24:00,
2013-05-12 09:25:00,56.5,42.0,29.95,NNW,338,1.3,6.9,58,0.00,,,0.00,WUHU216HW,2013-05-12 13:25:00,
2013-05-12 09:29:00,56.9,41.3,29.95,North,2,3.5,7.6,56,0.00,,,0.00,WUHU216HW,2013-05-12 13:29:00,
2013-05-12 09:30:00,57.2,41.7,29.95,North,0,3.4,7.6,56,0.00,,,0.00,WUHU216HW,2013-05-12 13:30:00,
2013-05-12 09:31:00,57.2,42.1,29.95,NW,315,3.1,7.6,57,0.00,,,0.00,WUHU216HW,2013-05-12 13:31:00,
2013-05-12 09:34:00,57.2,40.8,29.95,NNE,23,6.0,9.4,54,0.00,,,0.00,WUHU216HW,2013-05-12 13:34:00,
2013-05-12 09:35:00,57.1,40.6,29.95,North,4,4.6,9.4,54,0.00,,,0.00,WUHU216HW,2013-05-12 13:35:00,
2013-05-12 09:36:00,57.1,41.0,29.95,North,8,3.0,9.4,55,0.00,,,0.00,WUHU216HW,2013-05-12 13:36:00,
2013-05-12 09:37:00,57.1,40.2,29.95,North,0,3.4,9.4,53,0.00,,,0.00,WUHU216HW,2013-05-12 13:37:00,
2013-05-12 09:39:00,57.1,40.6,29.95,NNW,338,3.6,9.4,54,0.00,,,0.00,WUHU216HW,2013-05-12 13:39:00,
2013-05-12 09:41:00,57.2,40.3,29.95,North,0,6.3,9.4,53,0.00,,,0.00,WUHU216HW,2013-05-12 13:41:00,
2013-05-12 09:43:00,57.2,40.8,29.95,NNW,347,3.9,9.4,54,0.00,,,0.00,WUHU216HW,2013-05-12 13:43:00,
2013-05-12 09:45:00,57.4,40.0,29.95,NNW,338,6.3,6.9,52,0.00,,,0.00,WUHU216HW,2013-05-12 13:45:00,
2013-05-12 09:48:00,57.2,37.7,29.96,NW,315,8.5,8.5,48,0.00,,,0.00,WUHU216HW,2013-05-12 13:48:00,
2013-05-12 09:50:00,57.1,39.2,29.95,NE,45,5.8,11.9,51,0.00,,,0.00,WUHU216HW,2013-05-12 13:50:00,
2013-05-12 09:53:00,57.2,40.3,29.95,West,270,3.8,11.9,53,0.00,,,0.00,WUHU216HW,2013-05-12 13:53:00,
2013-05-12 09:54:00,57.2,40.3,29.96,NW,312,3.0,11.9,53,0.00,,,0.00,WUHU216HW,2013-05-12 13:54:00,
2013-05-12 09:55:00,57.4,41.0,29.96,NNW,338,3.4,11.9,54,0.00,,,0.00,WUHU216HW,2013-05-12 13:55:00,
2013-05-12 09:58:00,57.8,40.3,29.96,NW,326,3.6,11.9,52,0.00,,,0.00,WUHU216HW,2013-05-12 13:58:00,
2013-05-12 09:59:00,58.0,40.0,29.95,NNW,338,5.4,11.9,51,0.00,,,0.00,WUHU216HW,2013-05-12 13:59:00,
2013-05-12 10:00:00,57.8,39.3,29.96,NNW,341,4.0,5.6,50,0.00,,,0.00,WUHU216HW,2013-05-12 14:00:00,
2013-05-12 10:01:00,58.0,39.0,29.96,NNW,338,7.6,7.6,49,0.00,,,0.00,WUHU216HW,2013-05-12 14:01:00,
2013-05-12 10:04:00,57.8,39.3,29.96,North,0,3.3,7.6,50,0.00,,,0.00,WUHU216HW,2013-05-12 14:04:00,
2013-05-12 10:05:00,58.0,40.5,29.96,NNW,338,2.5,7.6,52,0.00,,,0.00,WUHU216HW,2013-05-12 14:05:00,
2013-05-12 10:06:00,58.0,41.0,29.96,North,4,2.2,7.6,53,0.00,,,0.00,WUHU216HW,2013-05-12 14:06:00,
2013-05-12 10:09:00,58.1,40.1,29.96,NNW,331,3.3,7.6,51,0.00,,,0.00,WUHU216HW,2013-05-12 14:09:00,
2013-05-12 10:10:00,58.3,39.2,29.96,NW,320,3.9,7.6,49,0.00,,,0.00,WUHU216HW,2013-05-12 14:10:00,
2013-05-12 10:12:00,58.3,38.7,29.96,North,0,7.4,8.3,48,0.00,,,0.00,WUHU216HW,2013-05-12 14:12:00,
2013-05-12 10:15:00,58.5,39.4,29.96,North,0,6.3,8.3,49,0.00,,,0.00,WUHU216HW,2013-05-12 14:15:00,
2013-05-12 10:17:00,58.5,39.4,29.96,NW,315,3.6,8.3,49,0.00,,,0.00,WUHU216HW,2013-05-12 14:17:00,
2013-05-12 10:18:00,58.5,38.9,29.96,NNE,23,4.0,8.3,48,0.00,,,0.00,WUHU216HW,2013-05-12 14:18:00,
2013-05-12 10:20:00,58.5,40.1,29.96,North,0,4.3,8.3,50,0.00,,,0.00,WUHU216HW,2013-05-12 14:20:00,
2013-05-12 10:21:00,58.7,40.7,29.96,North,5,2.7,8.3,51,0.00,,,0.00,WUHU216HW,2013-05-12 14:21:00,
2013-05-12 10:24:00,58.9,41.8,29.96,NW,315,3.4,7.6,53,0.00,,,0.00,WUHU216HW,2013-05-12 14:24:00,
2013-05-12 10:25:00,59.2,41.1,29.97,NNW,338,2.4,6.0,51,0.00,,,0.00,WUHU216HW,2013-05-12 14:25:00,
2013-05-12 10:26:00,59.2,40.1,29.97,NNW,338,2.4,6.0,49,0.00,,,0.00,WUHU216HW,2013-05-12 14:26:00,
2013-05-12 10:29:00,59.0,40.0,29.97,NW,315,3.8,7.2,49,0.00,,,0.00,WUHU216HW,2013-05-12 14:29:00,
2013-05-12 10:30:00,59.0,38.8,29.97,NNW,336,4.3,7.2,47,0.00,,,0.00,WUHU216HW,2013-05-12 14:30:00,
2013-05-12 10:31:00,59.0,40.0,29.97,NNW,342,3.9,7.2,49,0.00,,,0.00,WUHU216HW,2013-05-12 14:31:00,
2013-05-12 10:33:00,59.0,41.0,29.97,NNW,333,2.4,7.2,51,0.00,,,0.00,WUHU216HW,2013-05-12 14:33:00,
2013-05-12 10:35:00,59.4,41.3,29.97,WNW,285,1.6,7.2,51,0.00,,,0.00,WUHU216HW,2013-05-12 14:35:00,
2013-05-12 10:36:00,59.6,41.0,29.97,NW,315,4.3,7.2,50,0.00,,,0.00,WUHU216HW,2013-05-12 14:36:00,
2013-05-12 10:37:00,59.8,40.6,29.97,North,0,2.7,6.0,49,0.00,,,0.00,WUHU216HW,2013-05-12 14:37:00,
2013-05-12 10:39:00,59.8,37.7,29.97,NW,315,4.7,6.3,44,0.00,,,0.00,WUHU216HW,2013-05-12 14:39:00,
2013-05-12 10:40:00,59.8,39.4,29.97,NNW,336,4.2,6.3,47,0.00,,,0.00,WUHU216HW,2013-05-12 14:40:00,
2013-05-12 10:41:00,59.8,39.4,29.97,NNW,336,4.0,6.3,47,0.00,,,0.00,WUHU216HW,2013-05-12 14:41:00,
2013-05-12 10:42:00,59.6,38.1,29.97,NNW,338,2.9,6.3,45,0.00,,,0.00,WUHU216HW,2013-05-12 14:42:00,
2013-05-12 10:44:00,59.6,38.7,29.97,North,350,3.3,6.3,46,0.00,,,0.00,WUHU216HW,2013-05-12 14:44:00,
2013-05-12 10:45:00,59.6,38.7,29.97,NW,315,3.4,6.3,46,0.00,,,0.00,WUHU216HW,2013-05-12 14:45:00,
2013-05-12 10:46:00,59.6,38.7,29.97,NNW,342,3.7,6.9,46,0.00,,,0.00,WUHU216HW,2013-05-12 14:46:00,
2013-05-12 10:47:00,59.6,39.2,29.97,East,90,4.0,6.9,47,0.00,,,0.00,WUHU216HW,2013-05-12 14:47:00,
2013-05-12 10:48:00,59.6,38.1,29.97,NNE,23,4.3,8.5,45,0.00,,,0.00,WUHU216HW,2013-05-12 14:48:00,
2013-05-12 10:50:00,59.4,38.0,29.97,NNE,27,3.6,8.5,45,0.00,,,0.00,WUHU216HW,2013-05-12 14:50:00,
2013-05-12 10:51:00,59.4,39.1,29.97,NNE,20,3.2,8.5,47,0.00,,,0.00,WUHU216HW,2013-05-12 14:51:00,
2013-05-12 10:53:00,59.6,39.9,29.97,NNE,14,2.3,8.5,48,0.00,,,0.00,WUHU216HW,2013-05-12 14:53:00,
2013-05-12 10:55:00,59.8,40.6,29.98,North,0,1.2,8.5,49,0.00,,,0.00,WUHU216HW,2013-05-12 14:55:00,
2013-05-12 10:57:00,60.1,40.3,29.97,North,0,4.0,8.5,48,0.00,,,0.00,WUHU216HW,2013-05-12 14:57:00,
2013-05-12 10:58:00,60.3,39.9,29.98,North,354,3.6,8.5,47,0.00,,,0.00,WUHU216HW,2013-05-12 14:58:00,
2013-05-12 11:01:00,60.5,40.1,29.98,North,0,4.0,5.4,47,0.00,,,0.00,WUHU216HW,2013-05-12 15:01:00,
2013-05-12 11:03:00,60.7,40.2,29.98,NNW,344,2.7,5.4,47,0.00,,,0.00,WUHU216HW,2013-05-12 15:03:00,
2013-05-12 11:04:00,60.8,41.0,29.97,NE,45,3.8,5.4,48,0.00,,,0.00,WUHU216HW,2013-05-12 15:04:00,
2013-05-12 11:06:00,60.7,40.2,29.97,North,0,3.1,5.4,47,0.00,,,0.00,WUHU216HW,2013-05-12 15:06:00,
2013-05-12 11:08:00,60.8,41.0,29.98,NW,305,2.0,5.1,48,0.00,,,0.00,WUHU216HW,2013-05-12 15:08:00,
2013-05-12 11:09:00,60.8,41.0,29.98,West,279,1.9,5.1,48,0.00,,,0.00,WUHU216HW,2013-05-12 15:09:00,
2013-05-12 11:10:00,60.8,41.6,29.98,West,268,1.8,5.1,49,0.00,,,0.00,WUHU216HW,2013-05-12 15:10:00,
2013-05-12 11:12:00,61.0,40.0,29.97,North,0,4.0,5.4,46,0.00,,,0.00,WUHU216HW,2013-05-12 15:12:00,
2013-05-12 11:14:00,61.2,40.1,29.98,NNW,344,2.8,5.4,46,0.00,,,0.00,WUHU216HW,2013-05-12 15:14:00,
2013-05-12 11:15:00,61.2,40.7,29.97,NW,315,1.8,5.4,47,0.00,,,0.00,WUHU216HW,2013-05-12 15:15:00,
2013-05-12 11:18:00,61.4,39.7,29.98,NNE,23,4.7,6.9,45,0.00,,,0.00,WUHU216HW,2013-05-12 15:18:00,
2013-05-12 11:19:00,61.4,39.2,29.98,North,0,6.9,6.9,44,0.00,,,0.00,WUHU216HW,2013-05-12 15:19:00,
2013-05-12 11:20:00,61.2,39.0,29.98,North,8,4.6,6.9,44,0.00,,,0.00,WUHU216HW,2013-05-12 15:20:00,
2013-05-12 11:21:00,61.2,39.0,29.98,North,7,4.8,6.9,44,0.00,,,0.00,WUHU216HW,2013-05-12 15:21:00,
2013-05-12 11:23:00,60.8,39.2,29.98,NNE,22,3.8,6.9,45,0.00,,,0.00,WUHU216HW,2013-05-12 15:23:00,
2013-05-12 11:25:00,60.8,39.8,29.98,North,351,1.7,6.9,46,0.00,,,0.00,WUHU216HW,2013-05-12 15:25:00,
2013-05-12 11:26:00,60.8,40.4,29.98,NW,315,2.5,6.9,47,0.00,,,0.00,WUHU216HW,2013-05-12 15:26:00,
2013-05-12 11:27:00,61.0,40.6,29.98,NNW,332,1.7,6.9,47,0.00,,,0.00,WUHU216HW,2013-05-12 15:27:00,
2013-05-12 11:29:00,61.4,40.3,29.98,NNW,344,3.2,6.9,46,0.00,,,0.00,WUHU216HW,2013-05-12 15:29:00,
2013-05-12 11:30:00,61.4,40.3,29.98,East,90,3.4,5.1,46,0.00,,,0.00,WUHU216HW,2013-05-12 15:30:00,
2013-05-12 11:31:00,61.6,41.0,29.98,NNE,30,1.7,5.1,47,0.00,,,0.00,WUHU216HW,2013-05-12 15:31:00,
2013-05-12 11:32:00,61.6,41.0,29.98,NE,45,1.8,4.9,47,0.00,,,0.00,WUHU216HW,2013-05-12 15:32:00,
2013-05-12 11:34:00,61.9,41.9,29.98,NNW,338,5.8,5.8,48,0.00,,,0.00,WUHU216HW,2013-05-12 15:34:00,
2013-05-12 11:36:00,62.1,41.0,29.98,NNW,338,4.0,5.8,46,0.00,,,0.00,WUHU216HW,2013-05-12 15:36:00,
2013-05-12 11:38:00,61.9,39.1,29.98,NNW,338,3.5,5.8,43,0.00,,,0.00,WUHU216HW,2013-05-12 15:38:00,
2013-05-12 11:39:00,62.1,39.8,29.98,NE,45,2.5,5.8,44,0.00,,,0.00,WUHU216HW,2013-05-12 15:39:00,
2013-05-12 11:40:00,62.1,38.6,29.98,NNE,23,5.4,5.8,42,0.00,,,0.00,WUHU216HW,2013-05-12 15:40:00,
2013-05-12 11:42:00,61.9,39.1,29.98,North,0,2.5,5.8,43,0.00,,,0.00,WUHU216HW,2013-05-12 15:42:00,
2013-05-12 11:43:00,62.1,39.8,29.97,NNW,344,1.7,5.8,44,0.00,,,0.00,WUHU216HW,2013-05-12 15:43:00,
2013-05-12 11:45:00,62.1,39.3,29.98,West,270,2.9,5.8,43,0.00,,,0.00,WUHU216HW,2013-05-12 15:45:00,
2013-05-12 11:46:00,62.1,38.1,29.98,NW,315,4.9,5.8,41,0.00,,,0.00,WUHU216HW,2013-05-12 15:46:00,
2013-05-12 11:47:00,62.1,39.3,29.98,North,0,3.4,5.8,43,0.00,,,0.00,WUHU216HW,2013-05-12 15:47:00,
2013-05-12 11:48:00,62.3,40.0,29.98,North,353,2.5,5.8,44,0.00,,,0.00,WUHU216HW,2013-05-12 15:48:00,
2013-05-12 11:49:00,62.3,40.0,29.98,North,356,2.4,5.8,44,0.00,,,0.00,WUHU216HW,2013-05-12 15:49:00,
2013-05-12 11:51:00,62.6,40.9,29.98,WNW,293,1.1,4.9,45,0.00,,,0.00,WUHU216HW,2013-05-12 15:51:00,
2013-05-12 11:52:00,62.8,41.1,29.97,NW,315,3.4,4.9,45,0.00,,,0.00,WUHU216HW,2013-05-12 15:52:00,
2013-05-12 11:54:00,63.0,41.2,29.98,NW,313,2.7,4.9,45,0.00,,,0.00,WUHU216HW,2013-05-12 15:54:00,
2013-05-12 11:56:00,63.4,39.3,29.98,NW,315,4.0,4.3,41,0.00,,,0.00,WUHU216HW,2013-05-12 15:56:00,
2013-05-12 11:58:00,63.2,38.4,29.98,NW,315,4.3,4.5,40,0.00,,,0.00,WUHU216HW,2013-05-12 15:58:00,
2013-05-12 11:59:00,63.0,35.5,29.98,NNW,338,7.4,7.4,36,0.00,,,0.00,WUHU216HW,2013-05-12 15:59:00,
2013-05-12 12:00:00,62.8,36.7,29.98,NNW,340,5.1,7.4,38,0.00,,,0.00,WUHU216HW,2013-05-12 16:00:00,
2013-05-12 12:02:00,62.6,36.5,29.98,North,4,3.3,7.4,38,0.00,,,0.00,WUHU216HW,2013-05-12 16:02:00,
2013-05-12 12:03:00,62.6,37.3,29.98,North,353,3.5,7.4,39,0.00,,,0.00,WUHU216HW,2013-05-12 16:03:00,
2013-05-12 12:04:00,62.6,35.8,29.98,NNW,343,4.7,7.4,37,0.00,,,0.00,WUHU216HW,2013-05-12 16:04:00,
2013-05-12 12:05:00,62.5,37.1,29.97,NNW,341,4.0,7.4,39,0.00,,,0.00,WUHU216HW,2013-05-12 16:05:00,
2013-05-12 12:07:00,62.6,38.5,29.98,NW,323,2.4,7.4,41,0.00,,,0.00,WUHU216HW,2013-05-12 16:07:00,
2013-05-12 12:09:00,62.6,38.0,29.98,North,0,3.8,6.7,40,0.00,,,0.00,WUHU216HW,2013-05-12 16:09:00,
2013-05-12 12:10:00,62.6,39.7,29.98,NNW,336,2.1,6.7,43,0.00,,,0.00,WUHU216HW,2013-05-12 16:10:00,
2013-05-12 12:11:00,62.6,39.7,29.98,NW,311,1.2,6.7,43,0.00,,,0.00,WUHU216HW,2013-05-12 16:11:00,
2013-05-12 12:12:00,62.8,39.9,29.98,WNW,292,0.9,6.7,43,0.00,,,0.00,WUHU216HW,2013-05-12 16:12:00,
2013-05-12 12:13:00,63.0,40.6,29.98,NE,45,1.1,6.7,44,0.00,,,0.00,WUHU216HW,2013-05-12 16:13:00,
2013-05-12 12:14:00,63.0,37.6,29.98,North,8,2.5,4.9,39,0.00,,,0.00,WUHU216HW,2013-05-12 16:14:00,
2013-05-12 12:16:00,63.0,38.4,29.98,NW,321,3.6,6.3,40,0.00,,,0.00,WUHU216HW,2013-05-12 16:16:00,
2013-05-12 12:17:00,63.0,39.4,29.98,WNW,288,3.8,6.3,42,0.00,,,0.00,WUHU216HW,2013-05-12 16:17:00,
2013-05-12 12:18:00,63.2,40.8,29.98,WNW,289,2.9,6.3,44,0.00,,,0.00,WUHU216HW,2013-05-12 16:18:00,
2013-05-12 12:19:00,63.2,40.8,29.98,North,0,2.5,6.3,44,0.00,,,0.00,WUHU216HW,2013-05-12 16:19:00,
2013-05-12 12:20:00,63.2,40.8,29.98,NNW,342,1.8,6.3,44,0.00,,,0.00,WUHU216HW,2013-05-12 16:20:00,
2013-05-12 12:21:00,63.4,40.3,29.98,West,270,2.0,6.3,43,0.00,,,0.00,WUHU216HW,2013-05-12 16:21:00,
2013-05-12 12:22:00,63.4,40.3,29.98,WNW,290,1.2,6.3,43,0.00,,,0.00,WUHU216HW,2013-05-12 16:22:00,
2013-05-12 12:23:00,63.7,40.2,29.98,NW,315,3.4,6.3,42,0.00,,,0.00,WUHU216HW,2013-05-12 16:23:00,
2013-05-12 12:26:00,63.4,37.2,29.99,NNE,12,4.9,7.6,38,0.00,,,0.00,WUHU216HW,2013-05-12 16:26:00,
2013-05-12 12:27:00,63.4,35.7,29.99,North,0,4.5,7.6,36,0.00,,,0.00,WUHU216HW,2013-05-12 16:27:00,
2013-05-12 12:28:00,63.2,35.6,29.98,NNE,23,4.3,7.6,36,0.00,,,0.00,WUHU216HW,2013-05-12 16:28:00,
2013-05-12 12:30:00,63.0,38.4,29.98,NNE,17,2.1,7.6,40,0.00,,,0.00,WUHU216HW,2013-05-12 16:30:00,
2013-05-12 12:32:00,63.2,38.4,29.98,NNW,338,4.3,7.6,40,0.00,,,0.00,WUHU216HW,2013-05-12 16:32:00,
2013-05-12 12:33:00,63.2,38.4,29.98,NW,313,2.7,7.6,40,0.00,,,0.00,WUHU216HW,2013-05-12 16:33:00,
2013-05-12 12:36:00,63.4,37.9,29.98,North,350,4.2,6.3,39,0.00,,,0.00,WUHU216HW,2013-05-12 16:36:00,
2013-05-12 12:37:00,63.4,37.9,29.98,NNW,338,4.7,6.3,39,0.00,,,0.00,WUHU216HW,2013-05-12 16:37:00,
2013-05-12 12:38:00,63.4,38.6,29.99,North,352,3.1,6.3,40,0.00,,,0.00,WUHU216HW,2013-05-12 16:38:00,
2013-05-12 12:39:00,63.4,38.6,29.99,North,353,2.8,6.3,40,0.00,,,0.00,WUHU216HW,2013-05-12 16:39:00,
2013-05-12 12:41:00,63.5,38.8,29.99,North,352,1.8,6.3,40,0.00,,,0.00,WUHU216HW,2013-05-12 16:41:00,
2013-05-12 12:42:00,63.7,39.5,29.99,NNW,340,1.2,6.3,41,0.00,,,0.00,WUHU216HW,2013-05-12 16:42:00,
2013-05-12 12:44:00,63.9,39.7,29.99,NW,315,3.1,6.3,41,0.00,,,0.00,WUHU216HW,2013-05-12 16:44:00,
2013-05-12 12:45:00,64.1,39.9,29.99,NNE,23,3.6,6.3,41,0.00,,,0.00,WUHU216HW,2013-05-12 16:45:00,
2013-05-12 12:47:00,64.4,39.6,29.99,North,0,4.7,5.4,40,0.00,,,0.00,WUHU216HW,2013-05-12 16:47:00,
2013-05-12 12:49:00,64.4,35.3,29.99,ENE,68,5.4,5.8,34,0.00,,,0.00,WUHU216HW,2013-05-12 16:49:00,
2013-05-12 12:50:00,64.1,34.9,29.98,ENE,68,4.7,5.8,34,0.00,,,0.00,WUHU216HW,2013-05-12 16:50:00,
2013-05-12 12:53:00,63.4,37.9,29.98,NNE,23,4.0,5.8,39,0.00,,,0.00,WUHU216HW,2013-05-12 16:53:00,
2013-05-12 12:54:00,63.4,37.2,29.98,NNW,338,4.3,5.8,38,0.00,,,0.00,WUHU216HW,2013-05-12 16:54:00,
2013-05-12 12:56:00,63.7,39.0,29.98,NNW,339,2.1,5.8,40,0.00,,,0.00,WUHU216HW,2013-05-12 16:56:00,
2013-05-12 12:58:00,64.1,39.2,29.98,North,359,3.9,8.1,40,0.00,,,0.00,WUHU216HW,2013-05-12 16:58:00,
2013-05-12 12:59:00,64.1,39.2,29.98,North,357,4.2,8.1,40,0.00,,,0.00,WUHU216HW,2013-05-12 16:59:00,
2013-05-12 13:00:00,64.1,39.2,29.98,North,0,3.9,8.1,40,0.00,,,0.00,WUHU216HW,2013-05-12 17:00:00,
2013-05-12 13:02:00,64.3,38.7,29.98,North,0,3.6,8.1,39,0.00,,,0.00,WUHU216HW,2013-05-12 17:02:00,
2013-05-12 13:03:00,64.3,38.7,29.98,NE,45,5.1,8.1,39,0.00,,,0.00,WUHU216HW,2013-05-12 17:03:00,
2013-05-12 13:04:00,64.1,37.8,29.98,NE,40,3.6,8.1,38,0.00,,,0.00,WUHU216HW,2013-05-12 17:04:00,
2013-05-12 13:06:00,64.1,39.2,29.98,NW,315,2.2,8.1,40,0.00,,,0.00,WUHU216HW,2013-05-12 17:06:00,
2013-05-12 13:07:00,64.3,38.7,29.98,NW,326,2.4,8.1,39,0.00,,,0.00,WUHU216HW,2013-05-12 17:07:00,
2013-05-12 13:09:00,64.4,39.6,29.98,NNW,337,2.1,5.6,40,0.00,,,0.00,WUHU216HW,2013-05-12 17:09:00,
2013-05-12 13:11:00,64.6,39.1,29.98,NNE,30,2.7,5.1,39,0.00,,,0.00,WUHU216HW,2013-05-12 17:11:00,
2013-05-12 13:13:00,65.0,39.3,29.98,North,0,3.8,4.3,39,0.00,,,0.00,WUHU216HW,2013-05-12 17:13:00,
2013-05-12 13:14:00,65.0,39.3,29.97,NNW,338,3.8,4.3,39,0.00,,,0.00,WUHU216HW,2013-05-12 17:14:00,
2013-05-12 13:15:00,65.0,40.1,29.97,NNW,340,2.6,4.3,40,0.00,,,0.00,WUHU216HW,2013-05-12 17:15:00,
2013-05-12 13:16:00,65.2,40.2,29.97,WSW,248,3.8,4.3,40,0.00,,,0.00,WUHU216HW,2013-05-12 17:16:00,
2013-05-12 13:19:00,65.2,40.9,29.97,NNW,343,1.6,3.8,41,0.00,,,0.00,WUHU216HW,2013-05-12 17:19:00,
2013-05-12 13:20:00,65.2,39.5,29.98,ENE,68,1.6,3.8,39,0.00,,,0.00,WUHU216HW,2013-05-12 17:20:00,
2013-05-12 13:21:00,65.2,39.5,29.98,ESE,113,2.9,3.8,39,0.00,,,0.00,WUHU216HW,2013-05-12 17:21:00,
2013-05-12 13:24:00,64.8,36.4,29.98,ENE,68,6.9,7.2,35,0.00,,,0.00,WUHU216HW,2013-05-12 17:24:00,
2013-05-12 13:25:00,64.4,35.3,29.98,NNE,23,7.2,7.6,34,0.00,,,0.00,WUHU216HW,2013-05-12 17:25:00,
2013-05-12 13:26:00,64.1,36.4,29.98,NE,40,6.7,7.6,36,0.00,,,0.00,WUHU216HW,2013-05-12 17:26:00,
2013-05-12 13:27:00,63.9,37.0,29.98,NNE,21,6.2,7.6,37,0.00,,,0.00,WUHU216HW,2013-05-12 17:27:00,
2013-05-12 13:30:00,63.4,35.7,29.97,NE,37,3.6,9.8,36,0.00,,,0.00,WUHU216HW,2013-05-12 17:30:00,
2013-05-12 13:31:00,63.4,36.5,29.97,NE,44,3.2,9.8,37,0.00,,,0.00,WUHU216HW,2013-05-12 17:31:00,
2013-05-12 13:32:00,63.5,37.4,29.97,North,0,3.1,9.8,38,0.00,,,0.00,WUHU216HW,2013-05-12 17:32:00,
2013-05-12 13:34:00,63.7,37.5,29.97,NNE,12,3.0,9.8,38,0.00,,,0.00,WUHU216HW,2013-05-12 17:34:00,
2013-05-12 13:37:00,64.1,38.5,29.97,NNE,23,2.9,9.8,39,0.00,,,0.00,WUHU216HW,2013-05-12 17:37:00,
2013-05-12 13:38:00,64.4,38.2,29.97,North,0,4.5,6.3,38,0.00,,,0.00,WUHU216HW,2013-05-12 17:38:00,
2013-05-12 13:39:00,64.4,37.4,29.97,North,5,3.6,6.3,37,0.00,,,0.00,WUHU216HW,2013-05-12 17:39:00,
2013-05-12 13:40:00,64.6,36.9,29.97,North,350,3.3,6.3,36,0.00,,,0.00,WUHU216HW,2013-05-12 17:40:00,
2013-05-12 13:42:00,64.8,38.5,29.97,NW,306,2.1,6.3,38,0.00,,,0.00,WUHU216HW,2013-05-12 17:42:00,
2013-05-12 13:43:00,65.0,38.6,29.97,WNW,285,1.5,6.3,38,0.00,,,0.00,WUHU216HW,2013-05-12 17:43:00,
2013-05-12 13:44:00,65.0,38.6,29.97,West,270,1.8,6.3,38,0.00,,,0.00,WUHU216HW,2013-05-12 17:44:00,
2013-05-12 13:45:00,65.2,39.5,29.97,NW,313,2.1,6.3,39,0.00,,,0.00,WUHU216HW,2013-05-12 17:45:00,
2013-05-12 13:49:00,66.2,41.9,29.97,NNW,338,2.2,4.0,41,0.00,,,0.00,WUHU216HW,2013-05-12 17:49:00,
2013-05-12 13:50:00,66.2,41.9,29.97,NNW,338,2.5,4.0,41,0.00,,,0.00,WUHU216HW,2013-05-12 17:50:00,
2013-05-12 13:51:00,66.4,41.4,29.97,NW,315,1.8,4.0,40,0.00,,,0.00,WUHU216HW,2013-05-12 17:51:00,
2013-05-12 13:55:00,66.6,40.2,29.97,NNW,338,1.2,4.0,38,0.00,,,0.00,WUHU216HW,2013-05-12 17:55:00,
2013-05-12 13:56:00,66.6,39.3,29.97,North,351,2.1,3.6,37,0.00,,,0.00,WUHU216HW,2013-05-12 17:56:00,
2013-05-12 14:00:00,66.6,40.2,29.97,North,0,3.6,3.6,38,0.00,,,0.00,WUHU216HW,2013-05-12 18:00:00,
2013-05-12 14:01:00,66.6,40.9,29.97,NNW,337,2.6,3.6,39,0.00,,,0.00,WUHU216HW,2013-05-12 18:01:00,
2013-05-12 14:02:00,66.4,38.5,29.97,NNW,340,3.4,5.6,36,0.00,,,0.00,WUHU216HW,2013-05-12 18:02:00,
2013-05-12 14:05:00,66.1,39.6,29.97,NNW,341,2.0,5.6,38,0.00,,,0.00,WUHU216HW,2013-05-12 18:05:00,
2013-05-12 14:06:00,66.1,39.6,29.97,North,353,1.5,5.6,38,0.00,,,0.00,WUHU216HW,2013-05-12 18:06:00,
2013-05-12 14:07:00,66.1,40.3,29.97,North,357,1.4,5.6,39,0.00,,,0.00,WUHU216HW,2013-05-12 18:07:00,
2013-05-12 14:08:00,66.2,40.5,29.97,North,0,2.2,5.6,39,0.00,,,0.00,WUHU216HW,2013-05-12 18:08:00,
2013-05-12 14:11:00,66.2,39.8,29.97,North,0,4.5,5.6,38,0.00,,,0.00,WUHU216HW,2013-05-12 18:11:00,
2013-05-12 14:12:00,66.4,39.3,29.97,NNW,338,3.8,5.6,37,0.00,,,0.00,WUHU216HW,2013-05-12 18:12:00,
2013-05-12 14:13:00,66.2,38.3,29.97,NNW,342,3.0,5.4,36,0.00,,,0.00,WUHU216HW,2013-05-12 18:13:00,
2013-05-12 14:14:00,66.2,39.1,29.97,NNW,343,2.8,5.4,37,0.00,,,0.00,WUHU216HW,2013-05-12 18:14:00,
2013-05-12 14:16:00,66.2,39.8,29.97,North,357,1.8,5.4,38,0.00,,,0.00,WUHU216HW,2013-05-12 18:16:00,
2013-05-12 14:17:00,66.4,40.7,29.96,West,270,2.2,5.4,39,0.00,,,0.00,WUHU216HW,2013-05-12 18:17:00,
2013-05-12 14:18:00,66.6,41.6,29.96,NW,311,2.7,5.4,40,0.00,,,0.00,WUHU216HW,2013-05-12 18:18:00,
2013-05-12 14:19:00,66.6,41.6,29.96,NW,321,2.5,4.5,40,0.00,,,0.00,WUHU216HW,2013-05-12 18:19:00,
2013-05-12 14:21:00,66.6,40.9,29.96,NNW,331,2.5,4.7,39,0.00,,,0.00,WUHU216HW,2013-05-12 18:21:00,
2013-05-12 14:22:00,66.6,40.2,29.96,NNW,338,2.9,4.7,38,0.00,,,0.00,WUHU216HW,2013-05-12 18:22:00,
2013-05-12 14:24:00,66.6,39.3,29.96,NW,315,3.8,4.7,37,0.00,,,0.00,WUHU216HW,2013-05-12 18:24:00,
2013-05-12 14:25:00,66.6,39.3,29.96,NW,326,3.0,4.7,37,0.00,,,0.00,WUHU216HW,2013-05-12 18:25:00,
2013-05-12 14:27:00,66.6,40.2,29.96,WSW,248,2.9,4.7,38,0.00,,,0.00,WUHU216HW,2013-05-12 18:27:00,
2013-05-12 14:28:00,66.6,40.2,29.96,WSW,239,1.3,4.7,38,0.00,,,0.00,WUHU216HW,2013-05-12 18:28:00,
2013-05-12 14:29:00,66.8,39.5,29.96,NNE,23,1.8,4.7,37,0.00,,,0.00,WUHU216HW,2013-05-12 18:29:00,
2013-05-12 14:30:00,66.8,40.2,29.96,NNE,23,2.2,4.3,38,0.00,,,0.00,WUHU216HW,2013-05-12 18:30:00,
2013-05-12 14:32:00,66.6,38.6,29.95,NNE,15,3.5,6.5,36,0.00,,,0.00,WUHU216HW,2013-05-12 18:32:00,
2013-05-12 14:33:00,66.4,38.5,29.95,NNE,19,3.9,6.5,36,0.00,,,0.00,WUHU216HW,2013-05-12 18:33:00,
2013-05-12 14:34:00,66.4,39.3,29.95,NNE,21,3.8,6.5,37,0.00,,,0.00,WUHU216HW,2013-05-12 18:34:00,
2013-05-12 14:35:00,66.4,40.0,29.95,NNE,19,2.7,6.5,38,0.00,,,0.00,WUHU216HW,2013-05-12 18:35:00,
2013-05-12 14:38:00,66.6,39.3,29.95,WNW,293,2.5,6.5,37,0.00,,,0.00,WUHU216HW,2013-05-12 18:38:00,
2013-05-12 14:39:00,66.6,39.3,29.96,NW,317,1.8,6.5,37,0.00,,,0.00,WUHU216HW,2013-05-12 18:39:00,
2013-05-12 14:40:00,66.6,40.2,29.95,NNW,334,1.5,6.5,38,0.00,,,0.00,WUHU216HW,2013-05-12 18:40:00,
2013-05-12 14:41:00,66.6,39.3,29.95,WNW,293,3.6,6.5,37,0.00,,,0.00,WUHU216HW,2013-05-12 18:41:00,
2013-05-12 14:43:00,67.0,41.1,29.95,WSW,248,6.3,7.6,39,0.00,,,0.00,WUHU216HW,2013-05-12 18:43:00,
2013-05-12 14:45:00,67.0,39.7,29.95,NW,315,2.5,7.6,37,0.00,,,0.00,WUHU216HW,2013-05-12 18:45:00,
2013-05-12 14:46:00,67.0,39.7,29.95,North,0,3.8,7.6,37,0.00,,,0.00,WUHU216HW,2013-05-12 18:46:00,
2013-05-12 14:47:00,67.0,39.7,29.95,North,0,3.8,7.6,37,0.00,,,0.00,WUHU216HW,2013-05-12 18:47:00,
2013-05-12 14:48:00,67.0,39.0,29.95,North,357,3.4,7.6,36,0.00,,,0.00,WUHU216HW,2013-05-12 18:48:00,
2013-05-12 14:49:00,66.8,38.8,29.95,NNW,336,2.7,7.6,36,0.00,,,0.00,WUHU216HW,2013-05-12 18:49:00,
2013-05-12 14:51:00,67.0,39.0,29.95,NW,315,4.5,7.6,36,0.00,,,0.00,WUHU216HW,2013-05-12 18:51:00,
2013-05-12 14:52:00,66.8,37.4,29.95,NNE,23,3.4,7.6,34,0.00,,,0.00,WUHU216HW,2013-05-12 18:52:00,
2013-05-12 14:53:00,66.8,37.4,29.95,NW,315,3.4,7.6,34,0.00,,,0.00,WUHU216HW,2013-05-12 18:53:00,
2013-05-12 14:55:00,66.6,36.5,29.94,North,0,4.0,6.7,33,0.00,,,0.00,WUHU216HW,2013-05-12 18:55:00,
2013-05-12 14:57:00,66.4,36.4,29.95,North,4,3.8,4.7,33,0.00,,,0.00,WUHU216HW,2013-05-12 18:57:00,
2013-05-12 14:58:00,66.4,37.1,29.95,North,5,3.3,4.7,34,0.00,,,0.00,WUHU216HW,2013-05-12 18:58:00,
2013-05-12 14:59:00,66.4,37.1,29.94,NNE,17,2.4,4.7,34,0.00,,,0.00,WUHU216HW,2013-05-12 18:59:00,
2013-05-12 15:00:00,66.6,38.6,29.94,North,0,1.8,4.7,36,0.00,,,0.00,WUHU216HW,2013-05-12 19:00:00,
2013-05-12 15:02:00,66.8,38.8,29.94,NW,322,1.9,4.7,36,0.00,,,0.00,WUHU216HW,2013-05-12 19:02:00,
2013-05-12 15:03:00,66.8,39.5,29.94,NNW,343,1.5,4.7,37,0.00,,,0.00,WUHU216HW,2013-05-12 19:03:00,
2013-05-12 15:04:00,67.0,39.7,29.94,NNW,331,1.4,4.7,37,0.00,,,0.00,WUHU216HW,2013-05-12 19:04:00,
2013-05-12 15:06:00,67.3,40.8,29.94,NW,315,2.5,4.7,38,0.00,,,0.00,WUHU216HW,2013-05-12 19:06:00,
2013-05-12 15:08:00,67.5,40.1,29.94,West,270,2.0,4.7,37,0.00,,,0.00,WUHU216HW,2013-05-12 19:08:00,
2013-05-12 15:09:00,67.5,40.1,29.94,SSW,203,2.9,4.7,37,0.00,,,0.00,WUHU216HW,2013-05-12 19:09:00,
2013-05-12 15:10:00,67.5,40.9,29.94,WSW,248,2.0,4.7,38,0.00,,,0.00,WUHU216HW,2013-05-12 19:10:00,
2013-05-12 15:11:00,67.7,41.0,29.94,North,0,1.8,4.7,38,0.00,,,0.00,WUHU216HW,2013-05-12 19:11:00,
2013-05-12 15:14:00,67.5,40.1,29.94,East,90,3.1,4.7,37,0.00,,,0.00,WUHU216HW,2013-05-12 19:14:00,
2013-05-12 15:15:00,67.5,40.1,29.94,NNE,31,3.4,5.1,37,0.00,,,0.00,WUHU216HW,2013-05-12 19:15:00,
2013-05-12 15:16:00,67.5,40.1,29.94,North,6,2.7,5.1,37,0.00,,,0.00,WUHU216HW,2013-05-12 19:16:00,
2013-05-12 15:17:00,67.5,40.9,29.94,NW,325,1.9,5.1,38,0.00,,,0.00,WUHU216HW,2013-05-12 19:17:00,
2013-05-12 15:19:00,67.5,40.9,29.94,ENE,68,1.3,5.1,38,0.00,,,0.00,WUHU216HW,2013-05-12 19:19:00,
2013-05-12 15:21:00,67.5,40.9,29.94,NW,313,2.7,5.1,38,0.00,,,0.00,WUHU216HW,2013-05-12 19:21:00,
2013-05-12 15:22:00,67.5,40.9,29.94,NW,310,1.8,5.1,38,0.00,,,0.00,WUHU216HW,2013-05-12 19:22:00,
2013-05-12 15:24:00,67.7,38.1,29.94,East,90,1.6,5.1,34,0.00,,,0.00,WUHU216HW,2013-05-12 19:24:00,
2013-05-12 15:25:00,67.5,38.7,29.93,ENE,76,1.4,5.1,35,0.00,,,0.00,WUHU216HW,2013-05-12 19:25:00,
2013-05-12 15:27:00,67.1,36.9,29.93,ENE,60,2.5,5.1,33,0.00,,,0.00,WUHU216HW,2013-05-12 19:27:00,
2013-05-12 15:28:00,67.0,37.5,29.93,WSW,248,2.7,5.1,34,0.00,,,0.00,WUHU216HW,2013-05-12 19:28:00,
2013-05-12 15:29:00,67.0,37.5,29.93,WNW,293,2.7,5.1,34,0.00,,,0.00,WUHU216HW,2013-05-12 19:29:00,
2013-05-12 15:31:00,66.8,38.1,29.94,NW,315,4.0,4.5,35,0.00,,,0.00,WUHU216HW,2013-05-12 19:31:00,
2013-05-12 15:32:00,67.0,39.0,29.93,NW,315,3.4,4.5,36,0.00,,,0.00,WUHU216HW,2013-05-12 19:32:00,
2013-05-12 15:33:00,67.0,39.0,29.93,NW,308,2.9,4.5,36,0.00,,,0.00,WUHU216HW,2013-05-12 19:33:00,
2013-05-12 15:34:00,67.1,40.6,29.93,NNW,342,2.1,4.5,38,0.00,,,0.00,WUHU216HW,2013-05-12 19:34:00,
2013-05-12 15:36:00,67.3,40.8,29.93,North,0,2.2,4.5,38,0.00,,,0.00,WUHU216HW,2013-05-12 19:36:00,
2013-05-12 15:38:00,67.5,40.9,29.93,NW,320,3.0,4.7,38,0.00,,,0.00,WUHU216HW,2013-05-12 19:38:00,
2013-05-12 15:39:00,67.7,41.8,29.94,WNW,299,1.8,4.7,39,0.00,,,0.00,WUHU216HW,2013-05-12 19:39:00,
2013-05-12 15:40:00,67.9,41.2,29.93,NNW,338,1.8,4.7,38,0.00,,,0.00,WUHU216HW,2013-05-12 19:40:00,
2013-05-12 15:41:00,68.0,41.4,29.93,NNW,345,1.2,4.7,38,0.00,,,0.00,WUHU216HW,2013-05-12 19:41:00,
2013-05-12 15:43:00,68.0,39.2,29.93,North,356,3.3,5.4,35,0.00,,,0.00,WUHU216HW,2013-05-12 19:43:00,
2013-05-12 15:46:00,67.9,39.0,29.93,North,350,2.2,5.4,35,0.00,,,0.00,WUHU216HW,2013-05-12 19:46:00,
2013-05-12 15:47:00,67.9,38.3,29.93,NNW,345,1.9,5.4,34,0.00,,,0.00,WUHU216HW,2013-05-12 19:47:00,
2013-05-12 15:48:00,67.9,38.3,29.93,NNW,334,1.8,5.4,34,0.00,,,0.00,WUHU216HW,2013-05-12 19:48:00,
2013-05-12 15:50:00,67.7,38.9,29.93,WNW,291,1.4,5.4,35,0.00,,,0.00,WUHU216HW,2013-05-12 19:50:00,
2013-05-12 15:51:00,67.7,37.4,29.93,WNW,289,1.5,5.4,33,0.00,,,0.00,WUHU216HW,2013-05-12 19:51:00,
2013-05-12 15:52:00,67.7,38.1,29.93,SW,225,2.5,5.4,34,0.00,,,0.00,WUHU216HW,2013-05-12 19:52:00,
2013-05-12 15:53:00,67.7,38.9,29.93,WNW,282,1.9,3.4,35,0.00,,,0.00,WUHU216HW,2013-05-12 19:53:00,
2013-05-12 15:54:00,67.9,40.5,29.93,WNW,294,1.3,3.4,37,0.00,,,0.00,WUHU216HW,2013-05-12 19:54:00,
2013-05-12 15:56:00,68.0,39.2,29.93,NW,319,2.1,4.3,35,0.00,,,0.00,WUHU216HW,2013-05-12 19:56:00,
2013-05-12 15:58:00,68.0,38.4,29.93,North,0,4.7,5.4,34,0.00,,,0.00,WUHU216HW,2013-05-12 19:58:00,
2013-05-12 15:59:00,68.0,37.7,29.93,North,0,4.9,5.4,33,0.00,,,0.00,WUHU216HW,2013-05-12 19:59:00,
2013-05-12 16:03:00,67.5,38.0,29.93,NNE,13,3.0,6.3,34,0.00,,,0.00,WUHU216HW,2013-05-12 20:03:00,
2013-05-12 16:04:00,67.5,38.0,29.93,NNE,17,2.0,6.3,34,0.00,,,0.00,WUHU216HW,2013-05-12 20:04:00,
2013-05-12 16:05:00,67.5,38.7,29.92,North,0,3.6,6.3,35,0.00,,,0.00,WUHU216HW,2013-05-12 20:05:00,
2013-05-12 16:06:00,67.5,37.3,29.93,North,6,3.1,6.3,33,0.00,,,0.00,WUHU216HW,2013-05-12 20:06:00,
2013-05-12 16:07:00,67.3,36.4,29.93,NE,45,5.6,6.3,32,0.00,,,0.00,WUHU216HW,2013-05-12 20:07:00,
2013-05-12 16:08:00,67.3,37.8,29.93,North,5,4.3,6.3,34,0.00,,,0.00,WUHU216HW,2013-05-12 20:08:00,
2013-05-12 16:09:00,67.3,37.8,29.93,North,3,3.7,6.3,34,0.00,,,0.00,WUHU216HW,2013-05-12 20:09:00,
2013-05-12 16:10:00,67.3,38.5,29.93,NW,325,1.7,6.3,35,0.00,,,0.00,WUHU216HW,2013-05-12 20:10:00,
2013-05-12 16:11:00,67.3,38.5,29.93,WNW,299,1.1,6.3,35,0.00,,,0.00,WUHU216HW,2013-05-12 20:11:00,
2013-05-12 16:13:00,67.3,38.5,29.93,WSW,256,2.2,6.3,35,0.00,,,0.00,WUHU216HW,2013-05-12 20:13:00,
2013-05-12 16:15:00,67.3,38.5,29.93,WNW,303,1.2,6.3,35,0.00,,,0.00,WUHU216HW,2013-05-12 20:15:00,
2013-05-12 16:16:00,67.5,38.7,29.93,WNW,293,1.8,6.3,35,0.00,,,0.00,WUHU216HW,2013-05-12 20:16:00,
2013-05-12 16:17:00,67.7,38.9,29.93,SW,225,2.9,6.3,35,0.00,,,0.00,WUHU216HW,2013-05-12 20:17:00,
2013-05-12 16:18:00,67.7,40.3,29.93,West,268,3.1,6.3,37,0.00,,,0.00,WUHU216HW,2013-05-12 20:18:00,
2013-05-12 16:19:00,67.7,38.9,29.93,WNW,288,3.0,6.3,35,0.00,,,0.00,WUHU216HW,2013-05-12 20:19:00,
2013-05-12 16:21:00,67.9,39.0,29.93,NW,315,2.5,6.3,35,0.00,,,0.00,WUHU216HW,2013-05-12 20:21:00,
2013-05-12 16:23:00,67.9,37.5,29.93,North,0,3.8,6.3,33,0.00,,,0.00,WUHU216HW,2013-05-12 20:23:00,
2013-05-12 16:24:00,67.7,36.6,29.93,North,0,3.8,6.3,32,0.00,,,0.00,WUHU216HW,2013-05-12 20:24:00,
2013-05-12 16:25:00,67.7,37.4,29.93,North,357,2.6,6.3,33,0.00,,,0.00,WUHU216HW,2013-05-12 20:25:00,
2013-05-12 16:26:00,67.5,38.0,29.93,NE,45,4.0,6.3,34,0.00,,,0.00,WUHU216HW,2013-05-12 20:26:00,
2013-05-12 16:28:00,67.3,37.1,29.93,NNE,25,2.9,4.9,33,0.00,,,0.00,WUHU216HW,2013-05-12 20:28:00,
2013-05-12 16:29:00,67.3,37.8,29.93,NNW,343,2.3,4.9,34,0.00,,,0.00,WUHU216HW,2013-05-12 20:29:00,
2013-05-12 16:31:00,67.3,37.8,29.93,NNW,335,2.5,4.9,34,0.00,,,0.00,WUHU216HW,2013-05-12 20:31:00,
2013-05-12 16:32:00,67.3,37.8,29.93,NW,314,2.3,4.5,34,0.00,,,0.00,WUHU216HW,2013-05-12 20:32:00,
2013-05-12 16:34:00,67.1,38.4,29.93,WNW,301,2.3,4.5,35,0.00,,,0.00,WUHU216HW,2013-05-12 20:34:00,
2013-05-12 16:36:00,67.1,38.4,29.93,NW,314,2.4,4.5,35,0.00,,,0.00,WUHU216HW,2013-05-12 20:36:00,
2013-05-12 16:37:00,67.1,38.4,29.93,NW,315,1.8,4.5,35,0.00,,,0.00,WUHU216HW,2013-05-12 20:37:00,
2013-05-12 16:40:00,67.3,37.1,29.93,NW,315,3.8,4.5,33,0.00,,,0.00,WUHU216HW,2013-05-12 20:40:00,
2013-05-12 16:41:00,67.3,38.5,29.93,WSW,248,6.3,6.3,35,0.00,,,0.00,WUHU216HW,2013-05-12 20:41:00,
2013-05-12 16:42:00,67.3,37.8,29.93,NW,315,5.4,6.3,34,0.00,,,0.00,WUHU216HW,2013-05-12 20:42:00,
2013-05-12 16:43:00,67.1,36.9,29.93,NW,313,4.4,6.3,33,0.00,,,0.00,WUHU216HW,2013-05-12 20:43:00,
2013-05-12 16:44:00,67.1,36.9,29.93,SW,225,2.7,6.3,33,0.00,,,0.00,WUHU216HW,2013-05-12 20:44:00,
2013-05-12 16:46:00,67.0,36.8,29.93,NNE,23,4.5,6.3,33,0.00,,,0.00,WUHU216HW,2013-05-12 20:46:00,
2013-05-12 16:47:00,67.0,36.1,29.93,North,355,2.8,6.3,32,0.00,,,0.00,WUHU216HW,2013-05-12 20:47:00,
2013-05-12 16:49:00,67.0,36.8,29.93,NNW,339,1.8,6.3,33,0.00,,,0.00,WUHU216HW,2013-05-12 20:49:00,
2013-05-12 16:50:00,67.0,36.8,29.93,WNW,293,1.8,6.3,33,0.00,,,0.00,WUHU216HW,2013-05-12 20:50:00,
2013-05-12 16:51:00,67.0,36.8,29.93,NW,315,3.4,5.4,33,0.00,,,0.00,WUHU216HW,2013-05-12 20:51:00,
2013-05-12 16:52:00,66.8,36.6,29.93,WNW,303,2.7,4.5,33,0.00,,,0.00,WUHU216HW,2013-05-12 20:52:00,
2013-05-12 16:53:00,66.8,36.6,29.94,WNW,297,2.2,4.5,33,0.00,,,0.00,WUHU216HW,2013-05-12 20:53:00,
2013-05-12 16:54:00,66.8,37.4,29.94,WNW,285,2.0,4.5,34,0.00,,,0.00,WUHU216HW,2013-05-12 20:54:00,
2013-05-12 16:55:00,66.8,37.4,29.93,NNW,338,2.5,4.5,34,0.00,,,0.00,WUHU216HW,2013-05-12 20:55:00,
2013-05-12 16:56:00,66.8,38.1,29.93,NNW,330,1.6,4.5,35,0.00,,,0.00,WUHU216HW,2013-05-12 20:56:00,
2013-05-12 16:59:00,66.8,37.4,29.93,West,270,2.5,4.0,34,0.00,,,0.00,WUHU216HW,2013-05-12 20:59:00,
2013-05-12 17:00:00,66.8,37.4,29.93,NNW,338,4.7,4.7,34,0.00,,,0.00,WUHU216HW,2013-05-12 21:00:00,
2013-05-12 17:01:00,66.8,38.1,29.93,NW,315,3.4,4.7,35,0.00,,,0.00,WUHU216HW,2013-05-12 21:01:00,
2013-05-12 17:02:00,66.8,37.4,29.93,WNW,302,2.6,4.7,34,0.00,,,0.00,WUHU216HW,2013-05-12 21:02:00,
2013-05-12 17:06:00,66.6,36.5,29.93,NNW,338,2.5,4.7,33,0.00,,,0.00,WUHU216HW,2013-05-12 21:06:00,
2013-05-12 17:07:00,66.6,35.7,29.93,ENE,68,5.4,5.4,32,0.00,,,0.00,WUHU216HW,2013-05-12 21:07:00,
2013-05-12 17:09:00,66.6,36.5,29.93,NNW,338,1.8,5.4,33,0.00,,,0.00,WUHU216HW,2013-05-12 21:09:00,
2013-05-12 17:11:00,66.6,36.5,29.93,NNW,346,1.1,5.4,33,0.00,,,0.00,WUHU216HW,2013-05-12 21:11:00,
2013-05-12 17:12:00,66.6,37.2,29.93,WNW,293,2.7,5.4,34,0.00,,,0.00,WUHU216HW,2013-05-12 21:12:00,
2013-05-12 17:13:00,66.6,36.5,29.93,NW,315,3.1,5.4,33,0.00,,,0.00,WUHU216HW,2013-05-12 21:13:00,
2013-05-12 17:14:00,66.6,36.5,29.93,NNW,338,4.7,5.4,33,0.00,,,0.00,WUHU216HW,2013-05-12 21:14:00,
2013-05-12 17:16:00,66.4,35.7,29.93,NNW,340,2.9,5.4,32,0.00,,,0.00,WUHU216HW,2013-05-12 21:16:00,
2013-05-12 17:17:00,66.4,36.4,29.93,North,356,1.6,5.4,33,0.00,,,0.00,WUHU216HW,2013-05-12 21:17:00,
2013-05-12 17:18:00,66.4,37.1,29.93,NW,315,2.2,4.7,34,0.00,,,0.00,WUHU216HW,2013-05-12 21:18:00,
2013-05-12 17:22:00,66.4,37.1,29.93,SW,225,2.5,5.4,34,0.00,,,0.00,WUHU216HW,2013-05-12 21:22:00,
2013-05-12 17:23:00,66.4,35.7,29.93,WNW,293,4.0,5.4,32,0.00,,,0.00,WUHU216HW,2013-05-12 21:23:00,
2013-05-12 17:27:00,66.2,36.2,29.94,North,4,2.7,5.4,33,0.00,,,0.00,WUHU216HW,2013-05-12 21:27:00,
2013-05-12 17:28:00,66.2,36.2,29.94,NW,321,1.2,5.4,33,0.00,,,0.00,WUHU216HW,2013-05-12 21:28:00,
2013-05-12 17:29:00,66.2,36.9,29.94,North,0,2.0,4.7,34,0.00,,,0.00,WUHU216HW,2013-05-12 21:29:00,
2013-05-12 17:30:00,66.2,36.2,29.94,North,0,2.5,4.7,33,0.00,,,0.00,WUHU216HW,2013-05-12 21:30:00,
2013-05-12 17:32:00,66.2,35.5,29.94,NW,319,2.1,4.7,32,0.00,,,0.00,WUHU216HW,2013-05-12 21:32:00,
2013-05-12 17:33:00,66.1,35.3,29.94,WSW,248,2.7,4.7,32,0.00,,,0.00,WUHU216HW,2013-05-12 21:33:00,
2013-05-12 17:34:00,66.1,36.0,29.94,WNW,286,1.6,4.7,33,0.00,,,0.00,WUHU216HW,2013-05-12 21:34:00,
2013-05-12 17:36:00,66.1,36.7,29.94,WSW,257,1.6,4.7,34,0.00,,,0.00,WUHU216HW,2013-05-12 21:36:00,
2013-05-12 17:38:00,66.2,35.5,29.94,NNW,333,2.6,4.0,32,0.00,,,0.00,WUHU216HW,2013-05-12 21:38:00,
2013-05-12 17:39:00,66.2,36.9,29.94,NNW,334,3.1,4.0,34,0.00,,,0.00,WUHU216HW,2013-05-12 21:39:00,
2013-05-12 17:40:00,66.1,35.3,29.94,NNW,329,2.5,4.0,32,0.00,,,0.00,WUHU216HW,2013-05-12 21:40:00,
2013-05-12 17:41:00,66.1,33.8,29.94,NNW,338,2.5,4.0,30,0.00,,,0.00,WUHU216HW,2013-05-12 21:41:00,
2013-05-12 17:44:00,65.9,35.8,29.94,NW,317,2.2,4.0,33,0.00,,,0.00,WUHU216HW,2013-05-12 21:44:00,
2013-05-12 17:45:00,65.9,35.8,29.94,North,0,1.6,4.0,33,0.00,,,0.00,WUHU216HW,2013-05-12 21:45:00,
2013-05-12 17:46:00,65.9,34.4,29.94,North,0,4.5,4.5,31,0.00,,,0.00,WUHU216HW,2013-05-12 21:46:00,
2013-05-12 17:49:00,65.9,35.8,29.94,North,353,2.4,4.5,33,0.00,,,0.00,WUHU216HW,2013-05-12 21:49:00,
2013-05-12 17:50:00,65.7,35.7,29.94,North,1,2.8,4.5,33,0.00,,,0.00,WUHU216HW,2013-05-12 21:50:00,
2013-05-12 17:51:00,65.7,35.0,29.94,North,0,2.5,4.5,32,0.00,,,0.00,WUHU216HW,2013-05-12 21:51:00,
2013-05-12 17:52:00,65.5,34.8,29.94,SE,135,3.4,4.5,32,0.00,,,0.00,WUHU216HW,2013-05-12 21:52:00,
2013-05-12 17:55:00,65.5,34.1,29.94,NW,315,4.5,6.0,31,0.00,,,0.00,WUHU216HW,2013-05-12 21:55:00,
2013-05-12 17:57:00,65.5,34.1,29.94,NW,315,5.4,10.1,31,0.00,,,0.00,WUHU216HW,2013-05-12 21:57:00,
2013-05-12 17:58:00,65.3,33.2,29.94,NW,318,4.0,10.1,30,0.00,,,0.00,WUHU216HW,2013-05-12 21:58:00,
2013-05-12 18:00:00,65.2,34.5,29.94,NNW,342,2.4,10.1,32,0.00,,,0.00,WUHU216HW,2013-05-12 22:00:00,
2013-05-12 18:02:00,65.3,35.4,29.94,NNW,338,1.3,10.1,33,0.00,,,0.00,WUHU216HW,2013-05-12 22:02:00,
2013-05-12 18:03:00,65.2,34.5,29.94,NNW,332,2.8,10.1,32,0.00,,,0.00,WUHU216HW,2013-05-12 22:03:00,
2013-05-12 18:07:00,65.2,35.2,29.94,NW,320,1.5,5.4,33,0.00,,,0.00,WUHU216HW,2013-05-12 22:07:00,
2013-05-12 18:09:00,65.2,33.0,29.94,NW,315,2.9,5.1,30,0.00,,,0.00,WUHU216HW,2013-05-12 22:09:00,
2013-05-12 18:10:00,65.2,34.5,29.94,NNW,330,2.1,5.1,32,0.00,,,0.00,WUHU216HW,2013-05-12 22:10:00,
2013-05-12 18:12:00,65.2,35.2,29.94,NNW,327,2.3,5.4,33,0.00,,,0.00,WUHU216HW,2013-05-12 22:12:00,
2013-05-12 18:13:00,65.2,35.2,29.94,NNW,338,3.4,5.4,33,0.00,,,0.00,WUHU216HW,2013-05-12 22:13:00,
2013-05-12 18:14:00,65.2,34.5,29.94,NNW,329,2.7,5.4,32,0.00,,,0.00,WUHU216HW,2013-05-12 22:14:00,
2013-05-12 18:15:00,65.2,35.2,29.94,North,0,2.6,5.4,33,0.00,,,0.00,WUHU216HW,2013-05-12 22:15:00,
2013-05-12 18:16:00,65.2,33.8,29.94,NNW,338,4.0,7.4,31,0.00,,,0.00,WUHU216HW,2013-05-12 22:16:00,
2013-05-12 18:18:00,65.0,34.3,29.94,NW,326,2.2,7.4,32,0.00,,,0.00,WUHU216HW,2013-05-12 22:18:00,
2013-05-12 18:19:00,64.8,34.9,29.94,NW,309,1.7,7.4,33,0.00,,,0.00,WUHU216HW,2013-05-12 22:19:00,
2013-05-12 18:20:00,64.8,34.9,29.94,NW,314,1.5,7.4,33,0.00,,,0.00,WUHU216HW,2013-05-12 22:20:00,
2013-05-12 18:21:00,64.8,34.9,29.94,NW,315,1.6,7.4,33,0.00,,,0.00,WUHU216HW,2013-05-12 22:21:00,
2013-05-12 18:23:00,64.8,34.9,29.94,NNW,328,1.7,7.4,33,0.00,,,0.00,WUHU216HW,2013-05-12 22:23:00,
2013-05-12 18:24:00,64.8,34.9,29.94,NW,323,1.7,7.4,33,0.00,,,0.00,WUHU216HW,2013-05-12 22:24:00,
2013-05-12 18:26:00,64.8,35.7,29.94,NNE,19,1.8,4.0,34,0.00,,,0.00,WUHU216HW,2013-05-12 22:26:00,
2013-05-12 18:28:00,64.8,36.4,29.94,NW,315,1.1,4.0,35,0.00,,,0.00,WUHU216HW,2013-05-12 22:28:00,
2013-05-12 18:30:00,64.8,35.7,29.94,North,0,2.7,4.0,34,0.00,,,0.00,WUHU216HW,2013-05-12 22:30:00,
2013-05-12 18:32:00,64.6,36.9,29.94,NW,311,1.5,4.0,36,0.00,,,0.00,WUHU216HW,2013-05-12 22:32:00,
2013-05-12 18:34:00,64.6,37.6,29.94,WNW,293,1.6,4.0,37,0.00,,,0.00,WUHU216HW,2013-05-12 22:34:00,
2013-05-12 18:35:00,64.6,37.6,29.94,WNW,292,1.4,4.0,37,0.00,,,0.00,WUHU216HW,2013-05-12 22:35:00,
2013-05-12 18:37:00,64.6,36.2,29.94,West,270,3.6,4.0,35,0.00,,,0.00,WUHU216HW,2013-05-12 22:37:00,
2013-05-12 18:38:00,64.6,35.5,29.94,WNW,294,1.9,4.0,34,0.00,,,0.00,WUHU216HW,2013-05-12 22:38:00,
2013-05-12 18:41:00,64.4,36.7,29.94,NW,323,1.9,3.6,36,0.00,,,0.00,WUHU216HW,2013-05-12 22:41:00,
2013-05-12 18:42:00,64.4,36.7,29.94,West,281,1.3,3.6,36,0.00,,,0.00,WUHU216HW,2013-05-12 22:42:00,
2013-05-12 18:44:00,64.4,36.7,29.94,North,0,1.1,3.6,36,0.00,,,0.00,WUHU216HW,2013-05-12 22:44:00,
2013-05-12 18:46:00,64.4,35.3,29.94,WNW,293,1.8,4.3,34,0.00,,,0.00,WUHU216HW,2013-05-12 22:46:00,
2013-05-12 18:47:00,64.4,36.7,29.94,NW,319,1.6,4.3,36,0.00,,,0.00,WUHU216HW,2013-05-12 22:47:00,
2013-05-12 18:48:00,64.4,36.0,29.94,NW,315,1.8,4.3,35,0.00,,,0.00,WUHU216HW,2013-05-12 22:48:00,
2013-05-12 18:51:00,64.4,36.0,29.94,North,0,2.2,5.1,35,0.00,,,0.00,WUHU216HW,2013-05-12 22:51:00,
2013-05-12 18:52:00,64.3,35.1,29.94,NNE,31,1.8,5.1,34,0.00,,,0.00,WUHU216HW,2013-05-12 22:52:00,
2013-05-12 18:54:00,64.3,35.1,29.94,NNE,23,4.5,5.1,34,0.00,,,0.00,WUHU216HW,2013-05-12 22:54:00,
2013-05-12 18:56:00,64.3,36.5,29.94,North,0,2.5,5.1,36,0.00,,,0.00,WUHU216HW,2013-05-12 22:56:00,
2013-05-12 18:57:00,64.3,36.5,29.94,NNW,338,3.4,5.1,36,0.00,,,0.00,WUHU216HW,2013-05-12 22:57:00,
2013-05-12 18:58:00,64.3,36.5,29.94,NW,309,2.2,5.1,36,0.00,,,0.00,WUHU216HW,2013-05-12 22:58:00,
2013-05-12 18:59:00,64.1,36.4,29.94,NW,307,2.1,5.1,36,0.00,,,0.00,WUHU216HW,2013-05-12 22:59:00,
2013-05-12 19:01:00,64.1,37.1,29.94,WNW,302,2.0,4.5,37,0.00,,,0.00,WUHU216HW,2013-05-12 23:01:00,
2013-05-12 19:02:00,64.1,37.1,29.94,WNW,303,1.8,4.5,37,0.00,,,0.00,WUHU216HW,2013-05-12 23:02:00,
2013-05-12 19:03:00,63.9,37.7,29.94,West,274,1.0,4.5,38,0.00,,,0.00,WUHU216HW,2013-05-12 23:03:00,
2013-05-12 19:04:00,63.7,37.5,29.94,NE,45,1.3,3.6,38,0.00,,,0.00,WUHU216HW,2013-05-12 23:04:00,
2013-05-12 19:06:00,63.5,36.6,29.94,WNW,293,1.8,3.6,37,0.00,,,0.00,WUHU216HW,2013-05-12 23:06:00,
2013-05-12 19:08:00,63.5,36.6,29.94,West,273,1.0,3.6,37,0.00,,,0.00,WUHU216HW,2013-05-12 23:08:00,
2013-05-12 19:09:00,63.4,36.5,29.94,SSW,203,0.5,3.6,37,0.00,,,0.00,WUHU216HW,2013-05-12 23:09:00,
2013-05-12 19:11:00,63.4,37.2,29.94,SW,216,0.4,2.0,38,0.00,,,0.00,WUHU216HW,2013-05-12 23:11:00,
2013-05-12 19:13:00,63.2,37.7,29.94,WSW,256,1.1,2.0,39,0.00,,,0.00,WUHU216HW,2013-05-12 23:13:00,
2013-05-12 19:14:00,63.2,37.7,29.94,North,0,2.2,2.2,39,0.00,,,0.00,WUHU216HW,2013-05-12 23:14:00,
2013-05-12 19:15:00,63.0,38.4,29.94,NNW,335,1.7,2.5,40,0.00,,,0.00,WUHU216HW,2013-05-12 23:15:00,
2013-05-12 19:16:00,63.0,37.6,29.94,NW,309,1.3,2.5,39,0.00,,,0.00,WUHU216HW,2013-05-12 23:16:00,
2013-05-12 19:18:00,63.0,37.6,29.94,West,270,3.1,3.1,39,0.00,,,0.00,WUHU216HW,2013-05-12 23:18:00,
2013-05-12 19:19:00,63.0,37.6,29.94,WNW,301,2.3,3.1,39,0.00,,,0.00,WUHU216HW,2013-05-12 23:19:00,
2013-05-12 19:21:00,62.8,36.7,29.94,NW,314,2.0,3.6,38,0.00,,,0.00,WUHU216HW,2013-05-12 23:21:00,
2013-05-12 19:22:00,63.0,36.9,29.94,NW,317,2.0,3.6,38,0.00,,,0.00,WUHU216HW,2013-05-12 23:22:00,
2013-05-12 19:24:00,62.8,36.7,29.94,NNW,337,2.0,3.6,38,0.00,,,0.00,WUHU216HW,2013-05-12 23:24:00,
2013-05-12 19:25:00,62.8,36.0,29.94,NNE,23,2.5,3.6,37,0.00,,,0.00,WUHU216HW,2013-05-12 23:25:00,
2013-05-12 19:27:00,62.8,36.7,29.94,NW,315,1.3,3.6,38,0.00,,,0.00,WUHU216HW,2013-05-12 23:27:00,
2013-05-12 19:29:00,63.0,36.9,29.94,West,270,1.8,3.6,38,0.00,,,0.00,WUHU216HW,2013-05-12 23:29:00,
2013-05-12 19:30:00,63.0,36.9,29.94,North,356,1.5,3.6,38,0.00,,,0.00,WUHU216HW,2013-05-12 23:30:00,
2013-05-12 19:33:00,63.0,36.9,29.94,NW,323,1.3,3.6,38,0.00,,,0.00,WUHU216HW,2013-05-12 23:33:00,
2013-05-12 19:34:00,62.8,36.7,29.94,NW,316,1.0,3.6,38,0.00,,,0.00,WUHU216HW,2013-05-12 23:34:00,
2013-05-12 19:36:00,62.6,36.5,29.94,West,270,2.2,4.5,38,0.00,,,0.00,WUHU216HW,2013-05-12 23:36:00,
2013-05-12 19:37:00,62.5,35.6,29.94,NNW,330,2.7,4.5,37,0.00,,,0.00,WUHU216HW,2013-05-12 23:37:00,
2013-05-12 19:39:00,62.3,35.5,29.95,NNW,338,2.7,4.5,37,0.00,,,0.00,WUHU216HW,2013-05-12 23:39:00,
2013-05-12 19:40:00,62.1,36.1,29.94,NW,314,1.5,4.5,38,0.00,,,0.00,WUHU216HW,2013-05-12 23:40:00,
2013-05-12 19:43:00,61.9,35.2,29.94,NW,311,2.5,4.5,37,0.00,,,0.00,WUHU216HW,2013-05-12 23:43:00,
2013-05-12 19:44:00,61.6,35.6,29.95,WNW,301,1.6,4.5,38,0.00,,,0.00,WUHU216HW,2013-05-12 23:44:00,
2013-05-12 19:45:00,61.6,35.6,29.95,North,0,2.0,4.5,38,0.00,,,0.00,WUHU216HW,2013-05-12 23:45:00,
2013-05-12 19:47:00,61.6,35.6,29.95,West,270,1.6,4.5,38,0.00,,,0.00,WUHU216HW,2013-05-12 23:47:00,
2013-05-12 19:48:00,61.4,36.1,29.95,West,270,1.8,4.5,39,0.00,,,0.00,WUHU216HW,2013-05-12 23:48:00,
2013-05-12 19:49:00,61.4,36.1,29.95,WSW,251,1.2,4.5,39,0.00,,,0.00,WUHU216HW,2013-05-12 23:49:00,
2013-05-12 19:50:00,61.2,36.7,29.95,NNW,338,0.7,4.5,40,0.00,,,0.00,WUHU216HW,2013-05-12 23:50:00,
2013-05-12 19:52:00,61.0,35.8,29.95,NW,321,1.2,2.9,39,0.00,,,0.00,WUHU216HW,2013-05-12 23:52:00,
2013-05-12 19:53:00,60.8,35.6,29.95,NW,315,1.8,2.9,39,0.00,,,0.00,WUHU216HW,2013-05-12 23:53:00,
2013-05-12 19:54:00,60.8,35.6,29.95,West,270,1.8,2.9,39,0.00,,,0.00,WUHU216HW,2013-05-12 23:54:00,
2013-05-12 19:55:00,60.8,36.4,29.95,WNW,284,1.0,2.5,40,0.00,,,0.00,WUHU216HW,2013-05-12 23:55:00,
2013-05-12 19:56:00,60.7,36.2,29.95,WSW,248,1.1,2.5,40,0.00,,,0.00,WUHU216HW,2013-05-12 23:56:00,
2013-05-12 19:57:00,60.7,35.5,29.95,North,0,2.5,2.5,39,0.00,,,0.00,WUHU216HW,2013-05-12 23:57:00,
2013-05-12 19:59:00,60.5,36.0,29.95,NNW,342,1.3,2.5,40,0.00,,,0.00,WUHU216HW,2013-05-12 23:59:00,
2013-05-12 20:00:00,60.5,36.0,29.95,North,357,0.8,2.5,40,0.00,,,0.00,WUHU216HW,2013-05-13 00:00:00,
2013-05-12 20:01:00,60.3,35.9,29.95,NNE,14,0.8,2.5,40,0.00,,,0.00,WUHU216HW,2013-05-13 00:01:00,
2013-05-12 20:02:00,60.3,35.9,29.95,North,11,0.8,2.5,40,0.00,,,0.00,WUHU216HW,2013-05-13 00:02:00,
2013-05-12 20:03:00,60.1,35.7,29.95,North,0,1.1,2.5,40,0.00,,,0.00,WUHU216HW,2013-05-13 00:03:00,
2013-05-12 20:04:00,60.1,35.7,29.95,NNW,341,0.7,2.5,40,0.00,,,0.00,WUHU216HW,2013-05-13 00:04:00,
2013-05-12 20:05:00,60.1,35.7,29.95,North,0,0.8,2.5,40,0.00,,,0.00,WUHU216HW,2013-05-13 00:05:00,
2013-05-12 20:07:00,59.9,35.6,29.95,NW,315,1.1,2.5,40,0.00,,,0.00,WUHU216HW,2013-05-13 00:07:00,
2013-05-12 20:08:00,59.8,36.0,29.95,WSW,257,1.1,2.5,41,0.00,,,0.00,WUHU216HW,2013-05-13 00:08:00,
2013-05-12 20:09:00,59.9,36.1,29.95,WSW,255,1.0,2.5,41,0.00,,,0.00,WUHU216HW,2013-05-13 00:09:00,
2013-05-12 20:10:00,59.8,36.5,29.95,West,270,0.9,2.5,42,0.00,,,0.00,WUHU216HW,2013-05-13 00:10:00,
2013-05-12 20:12:00,59.6,36.4,29.95,North,0,0.7,2.5,42,0.00,,,0.00,WUHU216HW,2013-05-13 00:12:00,
2013-05-12 20:13:00,59.4,36.2,29.95,NNW,337,0.7,2.5,42,0.00,,,0.00,WUHU216HW,2013-05-13 00:13:00,
2013-05-12 20:14:00,59.2,36.1,29.95,NNE,23,0.9,2.5,42,0.00,,,0.00,WUHU216HW,2013-05-13 00:14:00,
2013-05-12 20:15:00,59.2,36.1,29.95,NW,312,0.5,2.5,42,0.00,,,0.00,WUHU216HW,2013-05-13 00:15:00,
2013-05-12 20:17:00,59.0,36.5,29.95,NNW,338,0.0,2.5,43,0.00,,,0.00,WUHU216HW,2013-05-13 00:17:00,
2013-05-12 20:19:00,58.9,36.9,29.95,NNE,23,0.3,1.1,44,0.00,,,0.00,WUHU216HW,2013-05-13 00:19:00,
2013-05-12 20:20:00,58.7,36.7,29.95,North,0,0.4,1.1,44,0.00,,,0.00,WUHU216HW,2013-05-13 00:20:00,
2013-05-12 20:21:00,58.7,36.7,29.95,North,1,0.5,1.1,44,0.00,,,0.00,WUHU216HW,2013-05-13 00:21:00,
2013-05-12 20:22:00,58.5,36.5,29.95,North,0,0.4,1.1,44,0.00,,,0.00,WUHU216HW,2013-05-13 00:22:00,
2013-05-12 20:24:00,58.1,36.8,29.95,North,0,0.4,0.9,45,0.00,,,0.00,WUHU216HW,2013-05-13 00:24:00,
2013-05-12 20:26:00,58.0,36.6,29.95,North,0,0.2,0.9,45,0.00,,,0.00,WUHU216HW,2013-05-13 00:26:00,
2013-05-12 20:27:00,57.8,36.5,29.95,NNW,338,0.0,0.9,45,0.00,,,0.00,WUHU216HW,2013-05-13 00:27:00,
2013-05-12 20:28:00,57.8,36.5,29.95,West,270,0.4,0.9,45,0.00,,,0.00,WUHU216HW,2013-05-13 00:28:00,
2013-05-12 20:31:00,57.2,36.5,29.95,NNW,338,0.4,0.4,46,0.00,,,0.00,WUHU216HW,2013-05-13 00:31:00,
2013-05-12 20:32:00,57.2,36.5,29.95,NW,318,0.4,0.4,46,0.00,,,0.00,WUHU216HW,2013-05-13 00:32:00,
2013-05-12 20:33:00,57.2,36.5,29.95,NNW,338,0.3,0.4,46,0.00,,,0.00,WUHU216HW,2013-05-13 00:33:00,
2013-05-12 20:37:00,56.7,36.1,29.95,NNW,338,0.7,1.3,46,0.00,,,0.00,WUHU216HW,2013-05-13 00:37:00,
2013-05-12 20:38:00,56.7,36.6,29.96,NNW,342,0.7,1.3,47,0.00,,,0.00,WUHU216HW,2013-05-13 00:38:00,
2013-05-12 20:39:00,56.5,36.5,29.96,NNW,343,0.6,1.3,47,0.00,,,0.00,WUHU216HW,2013-05-13 00:39:00,
2013-05-12 20:42:00,56.3,36.3,29.96,WNW,300,0.5,1.3,47,0.00,,,0.00,WUHU216HW,2013-05-13 00:42:00,
2013-05-12 20:43:00,56.3,36.3,29.96,West,281,0.5,1.3,47,0.00,,,0.00,WUHU216HW,2013-05-13 00:43:00,
2013-05-12 20:44:00,56.2,36.6,29.96,WSW,248,0.5,1.3,48,0.00,,,0.00,WUHU216HW,2013-05-13 00:44:00,
2013-05-12 20:46:00,56.0,36.5,29.96,NW,318,0.6,1.8,48,0.00,,,0.00,WUHU216HW,2013-05-13 00:46:00,
2013-05-12 20:47:00,56.0,36.5,29.96,NNW,335,0.4,1.8,48,0.00,,,0.00,WUHU216HW,2013-05-13 00:47:00,
2013-05-12 20:48:00,56.0,36.5,29.96,NNW,336,0.4,1.8,48,0.00,,,0.00,WUHU216HW,2013-05-13 00:48:00,
2013-05-12 20:49:00,55.8,36.4,29.96,NNW,338,0.4,1.8,48,0.00,,,0.00,WUHU216HW,2013-05-13 00:49:00,
2013-05-12 20:52:00,55.8,36.4,29.96,NW,315,0.2,1.8,48,0.00,,,0.00,WUHU216HW,2013-05-13 00:52:00,
2013-05-12 20:53:00,55.8,36.4,29.96,NNW,338,0.0,1.8,48,0.00,,,0.00,WUHU216HW,2013-05-13 00:53:00,
2013-05-12 20:54:00,55.6,36.2,29.96,NW,315,0.4,1.8,48,0.00,,,0.00,WUHU216HW,2013-05-13 00:54:00,
2013-05-12 20:55:00,55.4,36.0,29.96,NW,315,0.4,1.8,48,0.00,,,0.00,WUHU216HW,2013-05-13 00:55:00,
2013-05-12 20:56:00,55.4,36.0,29.96,NW,315,0.0,0.7,48,0.00,,,0.00,WUHU216HW,2013-05-13 00:56:00,
2013-05-12 20:58:00,55.1,36.2,29.96,NW,315,0.0,0.7,49,0.00,,,0.00,WUHU216HW,2013-05-13 00:58:00,
2013-05-12 21:00:00,55.1,36.2,29.96,West,272,0.7,1.1,49,0.00,,,0.00,WUHU216HW,2013-05-13 01:00:00,
2013-05-12 21:02:00,54.7,35.9,29.96,West,270,0.4,1.1,49,0.00,,,0.00,WUHU216HW,2013-05-13 01:02:00,
2013-05-12 21:04:00,54.5,35.7,29.96,West,270,0.0,1.1,49,0.00,,,0.00,WUHU216HW,2013-05-13 01:04:00,
2013-05-12 21:05:00,54.4,35.0,29.96,West,270,0.0,1.1,48,0.00,,,0.00,WUHU216HW,2013-05-13 01:05:00,
2013-05-12 21:06:00,54.4,35.0,29.96,NNW,329,0.5,1.1,48,0.00,,,0.00,WUHU216HW,2013-05-13 01:06:00,
2013-05-12 21:07:00,54.2,34.8,29.96,NW,318,0.4,1.1,48,0.00,,,0.00,WUHU216HW,2013-05-13 01:07:00,
2013-05-12 21:09:00,54.0,35.2,29.96,West,270,0.0,1.1,49,0.00,,,0.00,WUHU216HW,2013-05-13 01:09:00,
2013-05-12 21:11:00,54.0,35.2,29.96,NNW,338,0.3,0.9,49,0.00,,,0.00,WUHU216HW,2013-05-13 01:11:00,
2013-05-12 21:12:00,53.8,35.1,29.96,NNW,338,0.3,0.9,49,0.00,,,0.00,WUHU216HW,2013-05-13 01:12:00,
2013-05-12 21:15:00,53.6,34.9,29.96,NW,315,0.0,0.9,49,0.00,,,0.00,WUHU216HW,2013-05-13 01:15:00,
2013-05-12 21:16:00,53.6,34.9,29.96,NW,315,0.0,0.9,49,0.00,,,0.00,WUHU216HW,2013-05-13 01:16:00,
2013-05-12 21:17:00,53.6,34.9,29.96,NW,315,0.0,0.4,49,0.00,,,0.00,WUHU216HW,2013-05-13 01:17:00,
2013-05-12 21:20:00,53.5,34.7,29.97,NW,315,0.0,0.4,49,0.00,,,0.00,WUHU216HW,2013-05-13 01:20:00,
2013-05-12 21:21:00,53.3,35.1,29.97,NW,315,0.0,0.2,50,0.00,,,0.00,WUHU216HW,2013-05-13 01:21:00,
2013-05-12 21:22:00,53.3,35.1,29.97,NW,315,0.0,0.0,50,0.00,,,0.00,WUHU216HW,2013-05-13 01:22:00,
2013-05-12 21:23:00,53.3,35.1,29.97,NW,315,0.0,0.0,50,0.00,,,0.00,WUHU216HW,2013-05-13 01:23:00,
2013-05-12 21:26:00,53.1,35.9,29.96,NW,315,0.0,0.0,52,0.00,,,0.00,WUHU216HW,2013-05-13 01:26:00,
2013-05-12 21:27:00,52.9,35.7,29.97,NW,315,0.0,0.0,52,0.00,,,0.00,WUHU216HW,2013-05-13 01:27:00,
2013-05-12 21:28:00,52.9,35.7,29.97,NW,315,0.0,0.0,52,0.00,,,0.00,WUHU216HW,2013-05-13 01:28:00,
2013-05-12 21:29:00,52.7,36.0,29.97,NW,315,0.0,0.0,53,0.00,,,0.00,WUHU216HW,2013-05-13 01:29:00,
2013-05-12 21:31:00,52.6,35.8,29.97,NW,315,0.0,0.0,53,0.00,,,0.00,WUHU216HW,2013-05-13 01:31:00,
2013-05-12 21:32:00,52.4,36.2,29.97,NW,315,0.0,0.0,54,0.00,,,0.00,WUHU216HW,2013-05-13 01:32:00,
2013-05-12 21:34:00,52.2,36.0,29.97,NW,315,0.0,0.0,54,0.00,,,0.00,WUHU216HW,2013-05-13 01:34:00,
2013-05-12 21:36:00,52.2,36.0,29.97,NW,315,0.0,0.0,54,0.00,,,0.00,WUHU216HW,2013-05-13 01:36:00,
2013-05-12 21:38:00,51.8,35.6,29.97,NW,315,0.0,0.0,54,0.00,,,0.00,WUHU216HW,2013-05-13 01:38:00,
2013-05-12 21:39:00,51.8,36.1,29.97,NW,315,0.0,0.0,55,0.00,,,0.00,WUHU216HW,2013-05-13 01:39:00,
2013-05-12 21:43:00,51.5,36.2,29.97,WNW,293,0.3,0.4,56,0.00,,,0.00,WUHU216HW,2013-05-13 01:43:00,
2013-05-12 21:44:00,51.5,36.2,29.97,WNW,293,0.4,0.4,56,0.00,,,0.00,WUHU216HW,2013-05-13 01:44:00,
2013-05-12 21:45:00,51.5,36.2,29.97,WNW,293,0.2,0.4,56,0.00,,,0.00,WUHU216HW,2013-05-13 01:45:00,
2013-05-12 21:50:00,51.1,36.4,29.98,West,270,0.0,0.7,57,0.00,,,0.00,WUHU216HW,2013-05-13 01:50:00,
2013-05-12 21:51:00,50.9,36.6,29.98,West,270,0.0,0.7,58,0.00,,,0.00,WUHU216HW,2013-05-13 01:51:00,
2013-05-12 21:52:00,50.8,36.5,29.98,West,270,0.0,0.7,58,0.00,,,0.00,WUHU216HW,2013-05-13 01:52:00,
2013-05-12 21:56:00,50.6,36.7,29.97,West,270,0.9,1.1,59,0.00,,,0.00,WUHU216HW,2013-05-13 01:56:00,
2013-05-12 21:57:00,50.6,37.2,29.97,West,270,0.9,1.1,60,0.00,,,0.00,WUHU216HW,2013-05-13 01:57:00,
2013-05-12 22:01:00,50.2,37.3,29.98,West,270,0.6,1.1,61,0.00,,,0.00,WUHU216HW,2013-05-13 02:01:00,
2013-05-12 22:03:00,50.0,37.1,29.98,West,270,0.9,1.1,61,0.00,,,0.00,WUHU216HW,2013-05-13 02:03:00,
2013-05-12 22:05:00,50.0,37.5,29.98,West,270,0.5,1.1,62,0.00,,,0.00,WUHU216HW,2013-05-13 02:05:00,
2013-05-12 22:06:00,49.9,37.4,29.98,West,270,0.4,0.9,62,0.00,,,0.00,WUHU216HW,2013-05-13 02:06:00,
2013-05-12 22:07:00,49.9,37.4,29.98,West,270,0.4,0.9,62,0.00,,,0.00,WUHU216HW,2013-05-13 02:07:00,
2013-05-12 22:09:00,49.7,37.2,29.98,North,0,0.0,0.9,62,0.00,,,0.00,WUHU216HW,2013-05-13 02:09:00,
2013-05-12 22:10:00,49.7,37.5,29.98,ENE,68,0.5,0.9,63,0.00,,,0.00,WUHU216HW,2013-05-13 02:10:00,
2013-05-12 22:11:00,49.7,38.0,29.98,ENE,68,0.4,0.9,64,0.00,,,0.00,WUHU216HW,2013-05-13 02:11:00,
2013-05-12 22:12:00,49.7,38.0,29.98,ENE,68,0.7,0.9,64,0.00,,,0.00,WUHU216HW,2013-05-13 02:12:00,
2013-05-12 22:14:00,49.5,37.8,29.98,ENE,75,0.5,0.7,64,0.00,,,0.00,WUHU216HW,2013-05-13 02:14:00,
2013-05-12 22:15:00,49.7,38.0,29.99,East,90,0.7,1.1,64,0.00,,,0.00,WUHU216HW,2013-05-13 02:15:00,
2013-05-12 22:16:00,49.5,37.8,29.99,East,90,1.1,1.1,64,0.00,,,0.00,WUHU216HW,2013-05-13 02:16:00,
2013-05-12 22:17:00,49.5,37.8,29.99,East,100,1.0,1.1,64,0.00,,,0.00,WUHU216HW,2013-05-13 02:17:00,
2013-05-12 22:19:00,49.3,37.6,29.99,ESE,113,0.0,1.1,64,0.00,,,0.00,WUHU216HW,2013-05-13 02:19:00,
2013-05-12 22:20:00,49.3,37.6,29.99,ESE,113,0.0,1.1,64,0.00,,,0.00,WUHU216HW,2013-05-13 02:20:00,
2013-05-12 22:23:00,49.1,37.4,29.99,ESE,113,0.0,1.1,64,0.00,,,0.00,WUHU216HW,2013-05-13 02:23:00,
2013-05-12 22:25:00,49.0,37.3,29.99,ESE,113,0.4,1.1,64,0.00,,,0.00,WUHU216HW,2013-05-13 02:25:00,
2013-05-12 22:28:00,48.8,37.9,29.99,East,90,0.3,1.1,66,0.00,,,0.00,WUHU216HW,2013-05-13 02:28:00,
2013-05-12 22:29:00,48.8,37.9,29.99,East,90,0.3,1.1,66,0.00,,,0.00,WUHU216HW,2013-05-13 02:29:00,
2013-05-12 22:30:00,48.8,37.5,29.99,East,90,0.2,1.1,65,0.00,,,0.00,WUHU216HW,2013-05-13 02:30:00,
2013-05-12 22:31:00,48.6,37.4,29.99,ESE,113,0.0,1.1,65,0.00,,,0.00,WUHU216HW,2013-05-13 02:31:00,
2013-05-12 22:34:00,48.6,37.4,29.99,ESE,113,0.0,1.1,65,0.00,,,0.00,WUHU216HW,2013-05-13 02:34:00,
2013-05-12 22:35:00,48.4,37.5,29.99,ESE,113,0.0,1.1,66,0.00,,,0.00,WUHU216HW,2013-05-13 02:35:00,
2013-05-12 22:36:00,48.4,37.9,29.99,South,180,0.9,0.9,67,0.00,,,0.00,WUHU216HW,2013-05-13 02:36:00,
2013-05-12 22:37:00,48.4,37.9,29.99,South,180,0.4,0.9,67,0.00,,,0.00,WUHU216HW,2013-05-13 02:37:00,
2013-05-12 22:40:00,48.2,37.7,29.99,South,180,0.0,0.9,67,0.00,,,0.00,WUHU216HW,2013-05-13 02:40:00,
2013-05-12 22:41:00,48.2,37.7,29.99,South,180,0.0,0.9,67,0.00,,,0.00,WUHU216HW,2013-05-13 02:41:00,
2013-05-12 22:43:00,48.1,37.6,29.99,South,180,0.0,0.9,67,0.00,,,0.00,WUHU216HW,2013-05-13 02:43:00,
2013-05-12 22:44:00,48.1,37.6,29.99,South,180,0.0,0.9,67,0.00,,,0.00,WUHU216HW,2013-05-13 02:44:00,
2013-05-12 22:45:00,47.9,37.5,30.00,South,180,0.0,0.9,67,0.00,,,0.00,WUHU216HW,2013-05-13 02:45:00,
2013-05-12 22:46:00,47.9,37.5,29.99,South,180,0.0,0.0,67,0.00,,,0.00,WUHU216HW,2013-05-13 02:46:00,
2013-05-12 22:48:00,47.7,37.3,30.00,South,180,0.0,0.0,67,0.00,,,0.00,WUHU216HW,2013-05-13 02:48:00,
2013-05-12 22:49:00,47.5,37.1,30.00,South,180,0.0,0.0,67,0.00,,,0.00,WUHU216HW,2013-05-13 02:49:00,
2013-05-12 22:50:00,47.5,37.1,30.00,South,180,0.0,0.0,67,0.00,,,0.00,WUHU216HW,2013-05-13 02:50:00,
2013-05-12 22:51:00,47.5,37.1,30.00,South,180,0.0,0.0,67,0.00,,,0.00,WUHU216HW,2013-05-13 02:51:00,
2013-05-12 22:55:00,47.2,37.2,30.00,South,180,0.0,0.0,68,0.00,,,0.00,WUHU216HW,2013-05-13 02:55:00,
2013-05-12 22:56:00,47.2,37.2,30.00,South,180,0.0,0.0,68,0.00,,,0.00,WUHU216HW,2013-05-13 02:56:00,
2013-05-12 22:57:00,47.0,37.0,30.00,South,180,0.0,0.0,68,0.00,,,0.00,WUHU216HW,2013-05-13 02:57:00,
2013-05-12 23:00:00,46.8,36.8,30.00,South,180,0.0,0.0,68,0.00,,,0.00,WUHU216HW,2013-05-13 03:00:00,
2013-05-12 23:01:00,46.8,36.8,30.00,South,180,0.0,0.0,68,0.00,,,0.00,WUHU216HW,2013-05-13 03:01:00,
2013-05-12 23:03:00,46.6,36.6,30.00,South,180,0.0,0.0,68,0.00,,,0.00,WUHU216HW,2013-05-13 03:03:00,
2013-05-12 23:05:00,46.6,36.6,30.00,South,180,0.0,0.0,68,0.00,,,0.00,WUHU216HW,2013-05-13 03:05:00,
2013-05-12 23:07:00,46.6,37.0,30.00,South,180,0.0,0.0,69,0.00,,,0.00,WUHU216HW,2013-05-13 03:07:00,
2013-05-12 23:08:00,46.6,37.0,30.00,South,180,0.0,0.0,69,0.00,,,0.00,WUHU216HW,2013-05-13 03:08:00,
2013-05-12 23:09:00,46.6,37.0,30.00,South,180,0.0,0.0,69,0.00,,,0.00,WUHU216HW,2013-05-13 03:09:00,
2013-05-12 23:10:00,46.4,36.9,30.00,South,180,0.0,0.0,69,0.00,,,0.00,WUHU216HW,2013-05-13 03:10:00,
2013-05-12 23:13:00,46.4,36.9,30.00,South,180,0.0,0.0,69,0.00,,,0.00,WUHU216HW,2013-05-13 03:13:00,
2013-05-12 23:14:00,46.4,37.3,30.00,South,180,0.0,0.0,70,0.00,,,0.00,WUHU216HW,2013-05-13 03:14:00,
2013-05-12 23:16:00,46.4,37.3,30.00,South,180,0.0,0.0,70,0.00,,,0.00,WUHU216HW,2013-05-13 03:16:00,
2013-05-12 23:18:00,46.4,37.3,30.00,South,180,0.0,0.0,70,0.00,,,0.00,WUHU216HW,2013-05-13 03:18:00,
2013-05-12 23:19:00,46.3,37.1,30.00,South,180,0.0,0.0,70,0.00,,,0.00,WUHU216HW,2013-05-13 03:19:00,
2013-05-12 23:20:00,46.3,37.1,30.00,South,180,0.0,0.0,70,0.00,,,0.00,WUHU216HW,2013-05-13 03:20:00,
2013-05-12 23:21:00,46.3,37.1,30.00,South,180,0.0,0.0,70,0.00,,,0.00,WUHU216HW,2013-05-13 03:21:00,
2013-05-12 23:24:00,46.1,36.9,30.00,South,180,0.0,0.0,70,0.00,,,0.00,WUHU216HW,2013-05-13 03:24:00,
2013-05-12 23:25:00,46.1,36.9,30.00,South,180,0.0,0.0,70,0.00,,,0.00,WUHU216HW,2013-05-13 03:25:00,
2013-05-12 23:26:00,46.1,37.3,30.00,South,180,0.0,0.0,71,0.00,,,0.00,WUHU216HW,2013-05-13 03:26:00,
2013-05-12 23:27:00,46.1,37.3,30.00,South,180,0.0,0.0,71,0.00,,,0.00,WUHU216HW,2013-05-13 03:27:00,
2013-05-12 23:29:00,45.9,37.1,30.01,South,180,0.0,0.0,71,0.00,,,0.00,WUHU216HW,2013-05-13 03:29:00,
2013-05-12 23:31:00,45.9,37.1,30.01,South,180,0.0,0.0,71,0.00,,,0.00,WUHU216HW,2013-05-13 03:31:00,
2013-05-12 23:32:00,45.9,37.1,30.01,South,180,0.0,0.0,71,0.00,,,0.00,WUHU216HW,2013-05-13 03:32:00,
2013-05-12 23:33:00,45.9,37.5,30.01,South,180,0.0,0.0,72,0.00,,,0.00,WUHU216HW,2013-05-13 03:33:00,
2013-05-12 23:35:00,45.9,37.5,30.01,South,180,0.0,0.0,72,0.00,,,0.00,WUHU216HW,2013-05-13 03:35:00,
2013-05-12 23:36:00,45.9,37.5,30.01,South,180,0.0,0.0,72,0.00,,,0.00,WUHU216HW,2013-05-13 03:36:00,
2013-05-12 23:37:00,45.9,37.5,30.01,South,180,0.0,0.0,72,0.00,,,0.00,WUHU216HW,2013-05-13 03:37:00,
2013-05-12 23:38:00,45.9,37.5,30.01,South,180,0.0,0.0,72,0.00,,,0.00,WUHU216HW,2013-05-13 03:38:00,
2013-05-12 23:40:00,45.7,37.3,30.01,South,180,0.0,0.0,72,0.00,,,0.00,WUHU216HW,2013-05-13 03:40:00,
2013-05-12 23:42:00,45.7,37.3,30.01,South,180,0.0,0.0,72,0.00,,,0.00,WUHU216HW,2013-05-13 03:42:00,
2013-05-12 23:43:00,45.7,37.3,30.01,South,180,0.0,0.0,72,0.00,,,0.00,WUHU216HW,2013-05-13 03:43:00,
2013-05-12 23:46:00,45.4,36.9,30.01,South,180,0.0,0.0,72,0.00,,,0.00,WUHU216HW,2013-05-13 03:46:00,
2013-05-12 23:48:00,45.4,36.9,30.01,South,180,0.0,0.0,72,0.00,,,0.00,WUHU216HW,2013-05-13 03:48:00,
2013-05-12 23:49:00,45.2,36.7,30.01,South,180,0.0,0.0,72,0.00,,,0.00,WUHU216HW,2013-05-13 03:49:00,
2013-05-12 23:50:00,45.0,36.6,30.01,South,180,0.0,0.0,72,0.00,,,0.00,WUHU216HW,2013-05-13 03:50:00,
2013-05-12 23:52:00,45.0,36.6,30.01,South,180,0.0,0.0,72,0.00,,,0.00,WUHU216HW,2013-05-13 03:52:00,
2013-05-12 23:53:00,45.0,36.6,30.01,South,180,0.0,0.0,72,0.00,,,0.00,WUHU216HW,2013-05-13 03:53:00,
2013-05-12 23:54:00,44.8,36.6,30.01,South,180,0.0,0.0,73,0.00,,,0.00,WUHU216HW,2013-05-13 03:54:00,
2013-05-12 23:57:00,44.6,36.5,30.01,South,180,0.0,0.0,73,0.00,,,0.00,WUHU216HW,2013-05-13 03:57:00,
2013-05-12 23:58:00,44.6,36.8,30.01,South,180,0.0,0.0,74,0.00,,,0.00,WUHU216HW,2013-05-13 03:58:00,